FW0869 Weather Reports


Display with metric or nautical units.
time (UTC)temp
F
wind
direction
speed
MPH
gust
MPH
rain 1hr
in
rain 24hr
in
rain mn
in
humidity
%
barometer
mb
20260509203553 73 65 9.0 16.0 0.00 0.00 0.00 21 1015.3
20260509203452 73 18 9.0 16.0 0.00 0.00 0.00 22 1015.4
20260509203346 73 48 9.0 16.0 0.00 0.00 0.00 21 1015.3
20260509203248 73 34 10.0 16.0 0.00 0.00 0.00 22 1015.3
20260509203147 74 29 10.0 16.0 0.00 0.00 0.00 22 1015.4
20260509203131 73 338 10.0 21.0 0.00 0.00 0.00 22 1015.4
20260509203048 74 72 11.0 21.0 0.00 0.00 0.00 22 1015.4
20260509202947 74 22 11.0 21.0 0.00 0.00 0.00 21 1015.5
20260509202742 74 38 11.0 21.0 0.00 0.00 0.00 21 1015.5
20260509202640 74 37 12.0 21.0 0.00 0.00 0.00 21 1015.4
20260509202631 74 44 12.0 21.0 0.00 0.00 0.00 21 1015.4
20260509202540 74 18 12.0 21.0 0.00 0.00 0.00 22 1015.4
20260509202459 74 11 12.0 21.0 0.00 0.00 0.00 23 1015.4
20260509202131 74 71 11.0 20.0 0.00 0.00 0.00 22 1015.4
20260509202035 74 44 12.0 18.0 0.00 0.00 0.00 22 1015.4
20260509201934 74 32 12.0 18.0 0.00 0.00 0.00 21 1015.4
20260509201830 74 64 12.0 18.0 0.00 0.00 0.00 21 1015.4
20260509201742 74 45 12.0 18.0 0.00 0.00 0.00 21 1015.5
20260509201630 74 53 11.0 17.0 0.00 0.00 0.00 21 1015.5
20260509201531 74 24 11.0 17.0 0.00 0.00 0.00 21 1015.5
20260509201428 74 78 11.0 17.0 0.00 0.00 0.00 21 1015.4
20260509201330 74 45 11.0 17.0 0.00 0.00 0.00 22 1015.4
20260509201130 74 31 11.0 17.0 0.00 0.00 0.00 21 1015.5
20260509201122 74 37 11.0 17.0 0.00 0.00 0.00 20 1015.5
20260509201022 74 67 11.0 17.0 0.00 0.00 0.00 20 1015.5
20260509200924 74 64 10.0 17.0 0.00 0.00 0.00 19 1015.6
20260509200824 75 65 9.0 17.0 0.00 0.00 0.00 20 1015.6
20260509200630 75 80 9.0 17.0 0.00 0.00 0.00 20 1015.6
20260509200624 75 84 9.0 17.0 0.00 0.00 0.00 21 1015.6
20260509200416 76 57 9.0 17.0 0.00 0.00 0.00 21 1015.6
20260509200311 75 81 9.0 17.0 0.00 0.00 0.00 22 1015.6
20260509200210 75 29 9.0 17.0 0.00 0.00 0.00 21 1015.6
20260509200128 75 76 9.0 17.0 0.00 0.00 0.00 23 1015.6
20260509200111 75 43 9.0 17.0 0.00 0.00 0.00 22 1015.6
20260509200012 75 74 8.0 15.0 0.00 0.00 0.00 22 1015.6
20260509195911 75 58 8.0 15.0 0.00 0.00 0.00 22 1015.6
20260509195715 75 32 9.0 15.0 0.00 0.00 0.00 22 1015.6
20260509195708 74 32 9.0 15.0 0.00 0.00 0.00 22 1015.8
20260509195504 74 79 9.0 15.0 0.00 0.00 0.00 22 1015.8
20260509195405 74 91 8.0 15.0 0.00 0.00 0.00 23 1015.8
20260509195259 74 49 8.0 13.0 0.00 0.00 0.00 21 1015.8
20260509195158 74 63 8.0 15.0 0.00 0.00 0.00 20 1015.8
20260509195126 74 75 9.0 15.0 0.00 0.00 0.00 20 1015.8
20260509195058 74 63 9.0 15.0 0.00 0.00 0.00 19 1015.8
20260509194958 74 90 9.0 15.0 0.00 0.00 0.00 21 1015.8
20260509194859 74 69 10.0 16.0 0.00 0.00 0.00 23 1015.8
20260509194752 74 74 10.0 18.0 0.00 0.00 0.00 22 1015.9
20260509194652 74 28 9.0 18.0 0.00 0.00 0.00 23 1015.9
20260509194625 74 63 9.0 18.0 0.00 0.00 0.00 22 1015.9
20260509194553 74 80 9.0 18.0 0.00 0.00 0.00 22 1015.9
20260509194453 74 71 9.0 18.0 0.00 0.00 0.00 22 1015.9
20260509194401 74 51 9.0 18.0 0.00 0.00 0.00 22 1015.9
20260509194151 74 57 9.0 18.0 0.00 0.00 0.00 22 1015.9
20260509194126 74 55 9.0 18.0 0.00 0.00 0.00 22 1015.9
20260509194051 74 97 10.0 18.0 0.00 0.00 0.00 22 1015.9
20260509193951 74 69 10.0 18.0 0.00 0.00 0.00 22 1015.9
20260509193850 74 57 10.0 17.0 0.00 0.00 0.00 23 1015.8
20260509193809 74 42 10.0 17.0 0.00 0.00 0.00 23 1015.8
20260509193656 74 42 10.0 17.0 0.00 0.00 0.00 26 1015.9
20260509193457 73 26 11.0 17.0 0.00 0.00 0.00 24 1015.9
20260509193251 73 35 11.0 17.0 0.00 0.00 0.00 24 1015.9
20260509193150 73 55 10.0 17.0 0.00 0.00 0.00 24 1016.0
20260509193125 73 21 10.0 17.0 0.00 0.00 0.00 24 1016.0
20260509193050 73 34 10.0 17.0 0.00 0.00 0.00 23 1015.9
20260509192951 74 44 10.0 16.0 0.00 0.00 0.00 23 1015.9
20260509192851 74 51 9.0 16.0 0.00 0.00 0.00 22 1015.9
20260509192750 74 51 9.0 16.0 0.00 0.00 0.00 22 1016.0
20260509192655 74 50 9.0 16.0 0.00 0.00 0.00 21 1015.9
20260509192648 74 33 9.0 16.0 0.00 0.00 0.00 21 1015.9
20260509192444 75 34 8.0 16.0 0.00 0.00 0.00 22 1015.9
20260509192344 75 46 8.0 15.0 0.00 0.00 0.00 22 1015.9
20260509192245 75 65 8.0 15.0 0.00 0.00 0.00 22 1015.9
20260509192145 75 70 7.0 15.0 0.00 0.00 0.00 25 1015.9
20260509192126 75 78 7.0 15.0 0.00 0.00 0.00 25 1015.9
20260509192039 75 83 7.0 15.0 0.00 0.00 0.00 21 1016.0
20260509191938 76 82 8.0 15.0 0.00 0.00 0.00 23 1016.1
20260509191839 76 82 8.0 15.0 0.00 0.00 0.00 21 1016.0
20260509191740 76 51 7.0 15.0 0.00 0.00 0.00 22 1016.0
20260509191638 76 71 7.0 15.0 0.00 0.00 0.00 22 1016.0
20260509191624 76 65 7.0 15.0 0.00 0.00 0.00 22 1016.0
20260509191534 76 76 6.0 15.0 0.00 0.00 0.00 22 1016.0
20260509191433 76 59 6.0 15.0 0.00 0.00 0.00 23 1016.0
20260509191332 76 49 6.0 15.0 0.00 0.00 0.00 22 1016.0
20260509191233 76 10 6.0 13.0 0.00 0.00 0.00 24 1016.0
20260509191137 76 5 7.0 13.0 0.00 0.00 0.00 24 1016.1
20260509191130 76 51 7.0 13.0 0.00 0.00 0.00 24 1016.1
20260509190926 76 73 7.0 16.0 0.00 0.00 0.00 22 1016.0
20260509190826 75 103 7.0 16.0 0.00 0.00 0.00 22 1016.0
20260509190724 75 74 7.0 16.0 0.00 0.00 0.00 25 1016.0
20260509190624 75 94 7.0 16.0 0.00 0.00 0.00 23 1016.0
20260509190518 75 88 7.0 16.0 0.00 0.00 0.00 23 1016.1
20260509190419 75 67 7.0 16.0 0.00 0.00 0.00 22 1016.1
20260509190320 75 92 7.0 16.0 0.00 0.00 0.00 22 1016.2
20260509190230 75 67 7.0 16.0 0.00 0.00 0.00 23 1016.2
20260509190119 75 58 7.0 16.0 0.00 0.00 0.00 24 1016.2
20260509190014 75 72 6.0 13.0 0.00 0.00 0.00 22 1016.1
20260509185912 75 93 6.0 13.0 0.00 0.00 0.00 22 1016.1
20260509185820 74 108 6.0 13.0 0.00 0.00 0.00 25 1016.1
20260509185613 74 115 7.0 13.0 0.00 0.00 0.00 26 1016.2
20260509185508 74 155 7.0 13.0 0.00 0.00 0.00 23 1016.2
20260509185407 74 90 7.0 13.0 0.00 0.00 0.00 23 1016.4
20260509185308 74 49 7.0 13.0 0.00 0.00 0.00 23 1016.2
20260509185208 74 30 7.0 13.0 0.00 0.00 0.00 23 1016.4
20260509185106 74 49 8.0 13.0 0.00 0.00 0.00 23 1016.4
20260509185002 74 49 8.0 16.0 0.00 0.00 0.00 24 1016.4
20260509184902 74 88 8.0 16.0 0.00 0.00 0.00 24 1016.4
20260509184803 74 119 9.0 16.0 0.00 0.00 0.00 25 1016.4
20260509184702 74 74 9.0 16.0 0.00 0.00 0.00 25 1016.2
20260509184600 73 101 9.0 16.0 0.00 0.00 0.00 24 1016.2
20260509184512 73 95 9.0 16.0 0.00 0.00 0.00 24 1016.2
20260509184206 73 65 9.0 16.0 0.00 0.00 0.00 24 1016.4
20260509184052 73 56 9.0 16.0 0.00 0.00 0.00 25 1016.4
20260509183958 74 75 8.0 15.0 0.00 0.00 0.00 23 1016.4
20260509183900 74 33 8.0 15.0 0.00 0.00 0.00 24 1016.4
20260509183800 74 63 8.0 16.0 0.00 0.00 0.00 24 1016.4
20260509183700 74 76 8.0 16.0 0.00 0.00 0.00 24 1016.5
20260509183559 74 47 8.0 16.0 0.00 0.00 0.00 25 1016.4
20260509183548 74 86 8.0 16.0 0.00 0.00 0.00 26 1016.5
20260509183459 73 70 8.0 16.0 0.00 0.00 0.00 26 1016.5
20260509183358 73 42 9.0 16.0 0.00 0.00 0.00 24 1016.4
20260509183259 73 76 9.0 19.0 0.00 0.00 0.00 25 1016.5
20260509183159 73 59 10.0 19.0 0.00 0.00 0.00 24 1016.5
20260509183058 74 70 10.0 19.0 0.00 0.00 0.00 24 1016.4
20260509183048 74 65 10.0 19.0 0.00 0.00 0.00 24 1016.5
20260509182959 74 68 10.0 19.0 0.00 0.00 0.00 24 1016.5
20260509182858 74 342 10.0 19.0 0.00 0.00 0.00 23 1016.4
20260509182755 75 61 10.0 19.0 0.00 0.00 0.00 25 1016.4
20260509182655 75 57 10.0 19.0 0.00 0.00 0.00 25 1016.4
20260509182554 75 34 10.0 19.0 0.00 0.00 0.00 23 1016.5
20260509182547 75 59 10.0 19.0 0.00 0.00 0.00 23 1016.4
20260509182454 75 73 10.0 19.0 0.00 0.00 0.00 23 1016.4
20260509182355 76 92 9.0 19.0 0.00 0.00 0.00 23 1016.4
20260509182301 76 66 9.0 19.0 0.00 0.00 0.00 23 1016.4
20260509182056 76 71 8.0 15.0 0.00 0.00 0.00 22 1016.2
20260509182048 76 80 8.0 15.0 0.00 0.00 0.00 22 1016.2
20260509181954 76 71 8.0 15.0 0.00 0.00 0.00 22 1016.2
20260509181854 76 77 8.0 15.0 0.00 0.00 0.00 22 1016.2
20260509181755 76 96 7.0 13.0 0.00 0.00 0.00 23 1016.2
20260509181703 76 50 7.0 14.0 0.00 0.00 0.00 24 1016.2
20260509181655 76 31 7.0 14.0 0.00 0.00 0.00 25 1016.4
20260509181455 76 57 7.0 15.0 0.00 0.00 0.00 25 1016.4
20260509181354 76 96 8.0 15.0 0.00 0.00 0.00 23 1016.2
20260509181255 76 112 8.0 20.0 0.00 0.00 0.00 24 1016.4
20260509181155 77 47 9.0 21.0 0.00 0.00 0.00 24 1016.4
20260509181051 77 39 8.0 21.0 0.00 0.00 0.00 24 1016.4
20260509180950 77 42 8.0 21.0 0.00 0.00 0.00 26 1016.4
20260509180850 77 346 9.0 21.0 0.00 0.00 0.00 22 1016.4
20260509180751 76 355 9.0 21.0 0.00 0.00 0.00 19 1016.5
20260509180651 76 340 9.0 21.0 0.00 0.00 0.00 19 1016.2
20260509180551 76 27 9.0 21.0 0.00 0.00 0.00 18 1016.5
20260509180450 76 290 9.0 21.0 0.00 0.00 0.00 16 1016.5
20260509180356 76 306 8.0 21.0 0.00 0.00 0.00 16 1016.2
20260509180201 76 254 8.0 16.0 0.00 0.00 0.00 16 1016.4
20260509180050 76 271 9.0 16.0 0.00 0.00 0.00 19 1016.4
20260509175950 76 277 9.0 16.0 0.00 0.00 0.00 16 1016.4
20260509175851 76 276 10.0 16.0 0.00 0.00 0.00 16 1016.4
20260509175750 76 312 10.0 16.0 0.00 0.00 0.00 15 1016.5
20260509175703 76 292 10.0 16.0 0.00 0.00 0.00 16 1016.4
20260509175550 75 275 10.0 16.0 0.00 0.00 0.00 15 1016.5
20260509175451 75 306 10.0 16.0 0.00 0.00 0.00 18 1016.5
20260509175350 75 281 9.0 16.0 0.00 0.00 0.00 16 1016.5
20260509175258 75 286 9.0 16.0 0.00 0.00 0.00 15 1016.5
20260509175050 75 279 9.0 17.0 0.00 0.00 0.00 15 1016.4
20260509174952 75 267 9.0 17.0 0.00 0.00 0.00 15 1016.4
20260509174851 75 298 9.0 17.0 0.00 0.00 0.00 16 1016.4
20260509174750 75 306 8.0 17.0 0.00 0.00 0.00 17 1016.5
20260509174652 75 286 8.0 17.0 0.00 0.00 0.00 18 1016.5
20260509174550 75 294 8.0 17.0 0.00 0.00 0.00 20 1016.6
20260509174450 75 350 8.0 17.0 0.00 0.00 0.00 17 1016.5
20260509174352 75 277 9.0 17.0 0.00 0.00 0.00 17 1016.5
20260509174251 75 5 8.0 17.0 0.00 0.00 0.00 18 1016.2
20260509174150 75 11 8.0 17.0 0.00 0.00 0.00 18 1016.2
20260509174050 75 292 7.0 14.0 0.00 0.00 0.00 19 1016.2
20260509173950 75 261 7.0 14.0 0.00 0.00 0.00 16 1016.1
20260509173851 75 304 7.0 14.0 0.00 0.00 0.00 17 1016.4
20260509173757 75 327 8.0 16.0 0.00 0.00 0.00 18 1016.1
20260509173600 75 268 10.0 18.0 0.00 0.00 0.00 16 1016.2
20260509173350 75 244 10.0 21.0 0.00 0.00 0.00 19 1016.2
20260509173250 75 272 11.0 23.0 0.00 0.00 0.00 18 1016.4
20260509173150 75 300 11.0 23.0 0.00 0.00 0.00 21 1016.4
20260509173052 75 340 11.0 23.0 0.00 0.00 0.00 18 1016.4
20260509173045 75 340 12.0 23.0 0.00 0.00 0.00 18 1016.4
20260509172951 75 296 12.0 23.0 0.00 0.00 0.00 18 1016.4
20260509172850 76 335 11.0 23.0 0.00 0.00 0.00 17 1016.2
20260509172750 76 306 10.0 23.0 0.00 0.00 0.00 18 1016.2
20260509172652 76 304 10.0 23.0 0.00 0.00 0.00 19 1016.2
20260509172553 76 286 9.0 23.0 0.00 0.00 0.00 18 1016.1
20260509172546 76 286 9.0 23.0 0.00 0.00 0.00 17 1016.1
20260509172457 76 280 8.0 23.0 0.00 0.00 0.00 18 1016.2
20260509172247 76 252 7.0 22.0 0.00 0.00 0.00 17 1016.4
20260509172146 76 248 6.0 16.0 0.00 0.00 0.00 19 1016.5
20260509172050 75 240 5.0 12.0 0.00 0.00 0.00 19 1016.4
20260509172046 75 273 5.0 12.0 0.00 0.00 0.00 19 1016.4
20260509171946 75 282 5.0 12.0 0.00 0.00 0.00 17 1016.4
20260509171847 75 289 4.0 12.0 0.00 0.00 0.00 18 1016.5
20260509171746 75 234 4.0 12.0 0.00 0.00 0.00 16 1016.5
20260509171700 75 286 4.0 10.0 0.00 0.00 0.00 16 1016.5
20260509171652 75 254 4.0 10.0 0.00 0.00 0.00 17 1016.6
20260509171453 75 280 4.0 10.0 0.00 0.00 0.00 18 1016.4
20260509171244 75 284 4.0 10.0 0.00 0.00 0.00 19 1016.5
20260509171152 75 109 5.0 13.0 0.00 0.00 0.00 21 1016.5
20260509171040 74 109 6.0 13.0 0.00 0.00 0.00 21 1016.5
20260509170938 74 120 6.0 13.0 0.00 0.00 0.00 19 1016.4
20260509170838 74 42 6.0 13.0 0.00 0.00 0.00 21 1016.5
20260509170738 74 43 7.0 13.0 0.00 0.00 0.00 20 1016.5
20260509170639 74 43 7.0 13.0 0.00 0.00 0.00 19 1016.5
20260509170546 74 70 7.0 14.0 0.00 0.00 0.00 20 1016.4
20260509170539 74 71 7.0 14.0 0.00 0.00 0.00 20 1016.4
20260509170439 75 38 7.0 14.0 0.00 0.00 0.00 21 1016.4
20260509170346 75 39 6.0 14.0 0.00 0.00 0.00 20 1016.5
20260509170139 75 355 5.0 14.0 0.00 0.00 0.00 21 1016.4
20260509170051 75 34 5.0 14.0 0.00 0.00 0.00 22 1016.4
20260509170046 75 38 5.0 14.0 0.00 0.00 0.00 22 1016.4
20260509165835 75 5 4.0 14.0 0.00 0.00 0.00 21 1016.0
20260509165734 75 80 3.0 14.0 0.00 0.00 0.00 19 1016.0
20260509165634 75 96 3.0 14.0 0.00 0.00 0.00 18 1016.2
20260509165547 75 67 3.0 9.0 0.00 0.00 0.00 18 1016.2
20260509165534 75 57 3.0 9.0 0.00 0.00 0.00 18 1016.2
20260509165440 75 80 3.0 11.0 0.00 0.00 0.00 18 1016.1
20260509165252 75 277 5.0 12.0 0.00 0.00 0.00 18 1016.2
20260509165138 75 287 5.0 12.0 0.00 0.00 0.00 18 1016.2
20260509164937 75 355 6.0 12.0 0.00 0.00 0.00 19 1016.2
20260509164832 75 67 7.0 16.0 0.00 0.00 0.00 18 1016.2
20260509164732 75 12 8.0 16.0 0.00 0.00 0.00 21 1016.2
20260509164637 74 5 8.0 17.0 0.00 0.00 0.00 22 1016.4
20260509164630 74 308 8.0 17.0 0.00 0.00 0.00 22 1016.2
20260509164433 74 13 8.0 17.0 0.00 0.00 0.00 20 1016.2
20260509164226 74 22 7.0 17.0 0.00 0.00 0.00 21 1016.2
20260509164144 74 5 8.0 17.0 0.00 0.00 0.00 20 1016.2
20260509164137 74 344 8.0 17.0 0.00 0.00 0.00 22 1016.2
20260509163826 74 304 6.0 17.0 0.00 0.00 0.00 18 1016.2
20260509163726 74 338 6.0 17.0 0.00 0.00 0.00 18 1016.2
20260509163626 74 300 5.0 11.0 0.00 0.00 0.00 18 1016.2
20260509163544 74 348 5.0 11.0 0.00 0.00 0.00 20 1016.2
20260509163526 74 333 5.0 11.0 0.00 0.00 0.00 20 1016.2
20260509163422 74 332 5.0 11.0 0.00 0.00 0.00 18 1016.2
20260509163322 74 9 5.0 11.0 0.00 0.00 0.00 18 1016.1
20260509163222 74 54 4.0 11.0 0.00 0.00 0.00 18 1016.1
20260509163122 74 57 4.0 11.0 0.00 0.00 0.00 18 1016.1
20260509163045 74 24 3.0 11.0 0.00 0.00 0.00 18 1016.2
20260509163023 74 35 3.0 11.0 0.00 0.00 0.00 18 1016.2
20260509162923 74 37 3.0 11.0 0.00 0.00 0.00 22 1016.1
20260509162824 74 351 3.0 10.0 0.00 0.00 0.00 20 1016.2
20260509162722 74 45 3.0 10.0 0.00 0.00 0.00 20 1016.2
20260509162714 73 38 3.0 9.0 0.00 0.00 0.00 22 1016.1
20260509162603 73 96 3.0 9.0 0.00 0.00 0.00 19 1016.2
20260509162448 73 101 3.0 8.0 0.00 0.00 0.00 19 1016.2
20260509161923 73 350 3.0 8.0 0.00 0.00 0.00 20 1016.4
20260509161822 73 355 3.0 8.0 0.00 0.00 0.00 21 1016.4
20260509161729 73 296 3.0 8.0 0.00 0.00 0.00 21 1016.4
20260509161545 73 322 3.0 8.0 0.00 0.00 0.00 19 1016.4
20260509161520 72 322 3.0 8.0 0.00 0.00 0.00 19 1016.4
20260509161418 72 322 3.0 8.0 0.00 0.00 0.00 19 1016.4
20260509161318 72 15 3.0 8.0 0.00 0.00 0.00 20 1016.4
20260509161218 72 92 3.0 8.0 0.00 0.00 0.00 19 1016.4
20260509161130 72 9 3.0 8.0 0.00 0.00 0.00 19 1016.4
20260509161123 72 9 3.0 8.0 0.00 0.00 0.00 19 1016.5
20260509160918 73 292 3.0 11.0 0.00 0.00 0.00 18 1016.4
20260509160818 73 302 4.0 11.0 0.00 0.00 0.00 19 1016.4
20260509160718 72 10 4.0 11.0 0.00 0.00 0.00 18 1016.2
20260509160618 72 5 4.0 11.0 0.00 0.00 0.00 21 1016.4
20260509160518 72 5 4.0 11.0 0.00 0.00 0.00 21 1016.4
20260509160418 72 347 4.0 11.0 0.00 0.00 0.00 21 1016.4
20260509160318 72 323 4.0 11.0 0.00 0.00 0.00 19 1016.4
20260509160217 72 278 4.0 11.0 0.00 0.00 0.00 21 1016.2
20260509160118 72 255 5.0 11.0 0.00 0.00 0.00 18 1016.4
20260509160044 72 263 5.0 11.0 0.00 0.00 0.00 18 1016.4
20260509160018 72 284 5.0 11.0 0.00 0.00 0.00 19 1016.4
20260509155919 72 268 5.0 11.0 0.00 0.00 0.00 19 1016.4
20260509155902 72 314 5.0 13.0 0.00 0.00 0.00 21 1016.4
20260509155515 71 30 5.0 13.0 0.00 0.00 0.00 22 1016.4
20260509155414 71 307 5.0 13.0 0.00 0.00 0.00 20 1016.2
20260509155313 71 313 5.0 13.0 0.00 0.00 0.00 21 1016.2
20260509155214 71 294 5.0 13.0 0.00 0.00 0.00 19 1016.4
20260509155115 71 302 5.0 13.0 0.00 0.00 0.00 19 1016.4
20260509155041 71 322 5.0 13.0 0.00 0.00 0.00 19 1016.4
20260509155014 72 315 5.0 13.0 0.00 0.00 0.00 19 1016.4
20260509154914 72 325 5.0 13.0 0.00 0.00 0.00 20 1016.4
20260509154814 71 306 5.0 13.0 0.00 0.00 0.00 21 1016.4
20260509154714 71 324 5.0 13.0 0.00 0.00 0.00 22 1016.2
20260509154614 71 344 5.0 13.0 0.00 0.00 0.00 20 1016.4
20260509154539 71 5 5.0 13.0 0.00 0.00 0.00 19 1016.4
20260509154514 71 297 5.0 13.0 0.00 0.00 0.00 19 1016.4
20260509154414 71 311 5.0 13.0 0.00 0.00 0.00 21 1016.4
20260509154315 71 336 5.0 13.0 0.00 0.00 0.00 20 1016.4
20260509154213 71 311 5.0 13.0 0.00 0.00 0.00 20 1016.5
20260509154115 71 332 5.0 10.0 0.00 0.00 0.00 20 1016.2
20260509154040 71 312 5.0 10.0 0.00 0.00 0.00 23 1016.2
20260509154014 71 277 5.0 10.0 0.00 0.00 0.00 23 1016.2
20260509153915 71 0 5.0 10.0 0.00 0.00 0.00 20 1016.2
20260509153815 71 347 5.0 10.0 0.00 0.00 0.00 21 1016.4
20260509153710 71 325 4.0 10.0 0.00 0.00 0.00 18 1016.4
20260509153610 71 349 4.0 10.0 0.00 0.00 0.00 19 1016.5
20260509153540 71 330 4.0 10.0 0.00 0.00 0.00 19 1016.4
20260509153509 71 318 4.0 8.0 0.00 0.00 0.00 20 1016.4
20260509153410 71 317 4.0 8.0 0.00 0.00 0.00 20 1016.4
20260509153311 71 303 4.0 11.0 0.00 0.00 0.00 19 1016.4
20260509153229 71 11 4.0 11.0 0.00 0.00 0.00 22 1016.4
20260509153114 70 333 4.0 11.0 0.00 0.00 0.00 23 1016.4
20260509152911 70 304 4.0 11.0 0.00 0.00 0.00 21 1016.4
20260509152810 70 336 4.0 11.0 0.00 0.00 0.00 21 1016.4
20260509152753 70 271 5.0 11.0 0.00 0.00 0.00 20 1016.4
20260509152511 70 310 5.0 11.0 0.00 0.00 0.00 21 1016.4
20260509152411 69 242 4.0 11.0 0.00 0.00 0.00 20 1016.4
20260509152310 69 315 4.0 11.0 0.00 0.00 0.00 20 1016.5
20260509152218 69 344 3.0 10.0 0.00 0.00 0.00 21 1016.5
20260509152040 69 336 3.0 8.0 0.00 0.00 0.00 21 1016.5
20260509152021 69 341 3.0 8.0 0.00 0.00 0.00 20 1016.5
20260509151706 69 304 2.0 8.0 0.00 0.00 0.00 20 1016.6
20260509151606 69 293 3.0 8.0 0.00 0.00 0.00 21 1016.6
20260509151539 69 285 2.0 8.0 0.00 0.00 0.00 23 1016.5
20260509151507 69 251 2.0 8.0 0.00 0.00 0.00 23 1016.5
20260509151413 69 295 3.0 8.0 0.00 0.00 0.00 21 1016.6
20260509151206 69 275 3.0 8.0 0.00 0.00 0.00 21 1016.7
20260509151107 68 302 4.0 10.0 0.00 0.00 0.00 21 1016.6
20260509151035 68 301 4.0 12.0 0.00 0.00 0.00 22 1016.6
20260509151006 68 315 4.0 13.0 0.00 0.00 0.00 22 1016.6
20260509150907 68 262 5.0 13.0 0.00 0.00 0.00 20 1016.7
20260509150813 68 267 5.0 13.0 0.00 0.00 0.00 19 1016.7
20260509150607 67 276 7.0 19.0 0.00 0.00 0.00 19 1016.7
20260509150537 67 246 8.0 19.0 0.00 0.00 0.00 20 1016.7
20260509150506 67 260 8.0 19.0 0.00 0.00 0.00 20 1016.7
20260509150406 67 298 8.0 19.0 0.00 0.00 0.00 20 1016.7
20260509150312 67 252 8.0 19.0 0.00 0.00 0.00 19 1016.7
20260509150104 67 315 9.0 19.0 0.00 0.00 0.00 21 1016.7
20260509150035 67 273 9.0 19.0 0.00 0.00 0.00 21 1016.7
20260509150003 67 254 9.0 19.0 0.00 0.00 0.00 20 1016.7
20260509145900 67 284 9.0 19.0 0.00 0.00 0.00 21 1016.7
20260509145800 67 301 9.0 19.0 0.00 0.00 0.00 22 1016.7
20260509145658 66 251 8.0 19.0 0.00 0.00 0.00 22 1016.7
20260509145558 66 243 9.0 18.0 0.00 0.00 0.00 22 1016.7
20260509145535 66 274 9.0 18.0 0.00 0.00 0.00 22 1016.7
20260509145459 66 256 9.0 18.0 0.00 0.00 0.00 23 1016.7
20260509145253 65 278 9.0 18.0 0.00 0.00 0.00 23 1016.6
20260509145151 65 278 10.0 18.0 0.00 0.00 0.00 23 1016.7
20260509145052 65 297 9.0 18.0 0.00 0.00 0.00 23 1016.7
20260509145033 65 248 9.0 18.0 0.00 0.00 0.00 23 1016.6
20260509144952 65 286 9.0 18.0 0.00 0.00 0.00 23 1016.6
20260509144752 64 259 10.0 18.0 0.00 0.00 0.00 25 1016.6
20260509144651 64 215 10.0 18.0 0.00 0.00 0.00 25 1016.6
20260509144552 64 262 10.0 17.0 0.00 0.00 0.00 26 1016.6
20260509144534 64 209 10.0 17.0 0.00 0.00 0.00 26 1016.5
20260509144451 64 272 10.0 17.0 0.00 0.00 0.00 26 1016.5
20260509144350 64 294 10.0 23.0 0.00 0.00 0.00 26 1016.5
20260509144250 64 276 10.0 23.0 0.00 0.00 0.00 26 1016.5
20260509144150 63 258 11.0 23.0 0.00 0.00 0.00 26 1016.5
20260509144050 63 275 11.0 23.0 0.00 0.00 0.00 27 1016.6
20260509144035 63 291 11.0 23.0 0.00 0.00 0.00 27 1016.6
20260509143949 63 259 11.0 23.0 0.00 0.00 0.00 26 1016.6
20260509143851 63 250 11.0 23.0 0.00 0.00 0.00 26 1016.6
20260509143749 62 235 11.0 23.0 0.00 0.00 0.00 26 1016.5
20260509143648 62 252 12.0 23.0 0.00 0.00 0.00 26 1016.4
20260509143549 62 221 12.0 23.0 0.00 0.00 0.00 27 1016.6
20260509143531 62 311 12.0 23.0 0.00 0.00 0.00 27 1016.6
20260509143449 62 284 11.0 23.0 0.00 0.00 0.00 29 1016.4
20260509143348 61 319 11.0 21.0 0.00 0.00 0.00 29 1016.4
20260509143249 61 269 11.0 21.0 0.00 0.00 0.00 29 1016.4
20260509143148 60 235 11.0 21.0 0.00 0.00 0.00 30 1016.4
20260509143058 60 292 11.0 21.0 0.00 0.00 0.00 30 1016.4
20260509143051 60 268 11.0 21.0 0.00 0.00 0.00 30 1016.4
20260509142846 60 265 10.0 21.0 0.00 0.00 0.00 30 1016.4
20260509142746 59 243 10.0 21.0 0.00 0.00 0.00 31 1016.4
20260509142646 59 276 10.0 21.0 0.00 0.00 0.00 30 1016.2
20260509142558 59 280 10.0 21.0 0.00 0.00 0.00 30 1016.4
20260509142550 59 287 10.0 21.0 0.00 0.00 0.00 31 1016.4
20260509142346 59 255 11.0 21.0 0.00 0.00 0.00 30 1016.2
20260509142245 59 248 11.0 21.0 0.00 0.00 0.00 30 1016.5
20260509142147 59 259 11.0 21.0 0.00 0.00 0.00 31 1016.2
20260509142052 59 263 12.0 21.0 0.00 0.00 0.00 31 1016.4
20260509142046 59 250 12.0 21.0 0.00 0.00 0.00 31 1016.4
20260509141839 59 275 12.0 23.0 0.00 0.00 0.00 31 1016.2
20260509141740 59 257 12.0 23.0 0.00 0.00 0.00 31 1016.4
20260509141643 59 293 12.0 23.0 0.00 0.00 0.00 31 1016.4
20260509141636 59 252 12.0 23.0 0.00 0.00 0.00 31 1016.2
20260509141436 59 234 12.0 23.0 0.00 0.00 0.00 31 1016.2
20260509141336 59 284 12.0 23.0 0.00 0.00 0.00 31 1016.4
20260509141232 59 263 12.0 23.0 0.00 0.00 0.00 31 1016.4
20260509141132 59 246 11.0 23.0 0.00 0.00 0.00 31 1016.4
20260509141030 59 276 11.0 23.0 0.00 0.00 0.00 31 1016.4
20260509140924 59 223 10.0 20.0 0.00 0.00 0.00 32 1016.4
20260509140823 58 269 10.0 20.0 0.00 0.00 0.00 32 1016.4
20260509140733 58 276 10.0 20.0 0.00 0.00 0.00 32 1016.4
20260509140523 58 285 10.0 20.0 0.00 0.00 0.00 32 1016.4
20260509140425 58 255 9.0 20.0 0.00 0.00 0.00 32 1016.4
20260509140222 58 228 9.0 16.0 0.00 0.00 0.00 32 1016.4
20260509140129 58 279 9.0 15.0 0.00 0.00 0.00 32 1016.4
20260509140122 58 276 9.0 15.0 0.00 0.00 0.00 33 1016.5
20260509135915 58 260 9.0 15.0 0.00 0.00 0.00 32 1016.5
20260509135814 58 244 8.0 15.0 0.00 0.00 0.00 33 1016.5
20260509135714 58 265 7.0 14.0 0.00 0.00 0.00 33 1016.5
20260509135624 58 278 7.0 14.0 0.00 0.00 0.00 33 1016.5
20260509135618 58 267 6.0 14.0 0.00 0.00 0.00 33 1016.5
20260509135307 58 275 5.0 14.0 0.00 0.00 0.00 34 1016.5
20260509135207 58 254 4.0 14.0 0.00 0.00 0.00 34 1016.5
20260509135118 58 238 4.0 14.0 0.00 0.00 0.00 34 1016.5
20260509135007 58 288 3.0 13.0 0.00 0.00 0.00 34 1016.5
20260509134801 58 290 2.0 8.0 0.00 0.00 0.00 35 1016.5
20260509134700 58 291 3.0 8.0 0.00 0.00 0.00 35 1016.5
20260509134622 58 158 2.0 8.0 0.00 0.00 0.00 34 1016.5
20260509134510 58 296 3.0 8.0 0.00 0.00 0.00 35 1016.6
20260509134201 57 288 4.0 13.0 0.00 0.00 0.00 36 1016.5
20260509133953 57 301 5.0 13.0 0.00 0.00 0.00 37 1016.5
20260509133848 57 258 5.0 13.0 0.00 0.00 0.00 35 1016.5
20260509133747 57 288 5.0 13.0 0.00 0.00 0.00 36 1016.4
20260509133647 57 273 5.0 13.0 0.00 0.00 0.00 36 1016.4
20260509133559 56 229 4.0 13.0 0.00 0.00 0.00 37 1016.2
20260509133552 56 273 4.0 11.0 0.00 0.00 0.00 39 1016.2
20260509133344 56 219 4.0 10.0 0.00 0.00 0.00 38 1016.4
20260509133244 56 240 4.0 10.0 0.00 0.00 0.00 38 1016.2
20260509133143 56 231 4.0 10.0 0.00 0.00 0.00 38 1016.2
20260509133045 56 205 4.0 10.0 0.00 0.00 0.00 38 1016.2
20260509132943 56 240 3.0 8.0 0.00 0.00 0.00 39 1016.4
20260509132736 56 240 3.0 8.0 0.00 0.00 0.00 39 1016.4
20260509132636 56 222 3.0 8.0 0.00 0.00 0.00 39 1016.4
20260509132537 56 241 3.0 7.0 0.00 0.00 0.00 38 1016.4
20260509132439 56 272 3.0 7.0 0.00 0.00 0.00 39 1016.4
20260509132231 56 254 3.0 7.0 0.00 0.00 0.00 40 1016.2
20260509132132 56 222 3.0 7.0 0.00 0.00 0.00 41 1016.4
20260509132032 56 275 3.0 7.0 0.00 0.00 0.00 41 1016.4
20260509131929 56 212 3.0 7.0 0.00 0.00 0.00 40 1016.4
20260509131832 56 232 3.0 7.0 0.00 0.00 0.00 40 1016.4
20260509131624 56 225 4.0 8.0 0.00 0.00 0.00 40 1016.5
20260509131535 56 273 4.0 8.0 0.00 0.00 0.00 40 1016.4
20260509131424 56 248 4.0 8.0 0.00 0.00 0.00 40 1016.4
20260509131318 56 272 4.0 8.0 0.00 0.00 0.00 40 1016.5
20260509131218 57 255 5.0 8.0 0.00 0.00 0.00 39 1016.4
20260509131118 57 255 5.0 8.0 0.00 0.00 0.00 39 1016.4
20260509131028 57 283 5.0 8.0 0.00 0.00 0.00 39 1016.4
20260509131022 57 253 6.0 8.0 0.00 0.00 0.00 39 1016.4
20260509130812 57 238 6.0 11.0 0.00 0.00 0.00 39 1016.2
20260509130713 57 249 6.0 11.0 0.00 0.00 0.00 40 1016.4
20260509130612 57 263 6.0 12.0 0.00 0.00 0.00 40 1016.4
20260509130524 57 246 6.0 12.0 0.00 0.00 0.00 40 1016.4
20260509130412 56 262 7.0 12.0 0.00 0.00 0.00 39 1016.4
20260509130320 56 267 7.0 12.0 0.00 0.00 0.00 39 1016.2
20260509130006 56 257 7.0 12.0 0.00 0.00 0.00 40 1016.2
20260509125905 56 287 7.0 12.0 0.00 0.00 0.00 40 1016.1
20260509125801 55 277 7.0 12.0 0.00 0.00 0.00 40 1016.1
20260509125701 55 291 7.0 12.0 0.00 0.00 0.00 40 1016.1
20260509125609 55 246 6.0 12.0 0.00 0.00 0.00 41 1016.1
20260509125359 54 284 5.0 11.0 0.00 0.00 0.00 42 1016.1
20260509125253 53 276 5.0 10.0 0.00 0.00 0.00 42 1016.1
20260509125202 53 254 4.0 10.0 0.00 0.00 0.00 43 1016.0
20260509124954 53 276 4.0 9.0 0.00 0.00 0.00 44 1016.0
20260509124855 52 302 3.0 8.0 0.00 0.00 0.00 45 1015.9
20260509124750 52 267 3.0 8.0 0.00 0.00 0.00 45 1016.0
20260509124651 52 281 3.0 8.0 0.00 0.00 0.00 45 1015.9
20260509124558 52 254 3.0 7.0 0.00 0.00 0.00 46 1015.9
20260509124349 52 281 2.0 7.0 0.00 0.00 0.00 48 1015.9
20260509124244 52 296 2.0 7.0 0.00 0.00 0.00 48 1015.9
20260509124143 52 309 1.0 7.0 0.00 0.00 0.00 48 1015.9
20260509124041 52 270 1.0 7.0 0.00 0.00 0.00 48 1015.9
20260509123943 52 279 1.0 4.0 0.00 0.00 0.00 48 1015.9
20260509123842 52 248 1.0 4.0 0.00 0.00 0.00 47 1015.9
20260509123742 52 222 0.0 3.0 0.00 0.00 0.00 47 1015.8
20260509123640 52 222 0.0 2.0 0.00 0.00 0.00 47 1015.8
20260509123540 52 222 0.0 2.0 0.00 0.00 0.00 47 1015.8
20260509123438 52 222 0.0 2.0 0.00 0.00 0.00 47 1015.8
20260509123336 52 222 0.0 2.0 0.00 0.00 0.00 46 1015.8
20260509123234 52 222 0.0 2.0 0.00 0.00 0.00 46 1015.6
20260509123140 52 79 0.0 1.0 0.00 0.00 0.00 46 1015.8
20260509122932 52 68 0.0 3.0 0.00 0.00 0.00 45 1015.6
20260509122847 53 67 0.0 3.0 0.00 0.00 0.00 45 1015.6
20260509122830 53 62 0.0 3.0 0.00 0.00 0.00 45 1015.6
20260509122726 53 63 1.0 3.0 0.00 0.00 0.00 45 1015.6
20260509122624 53 63 1.0 3.0 0.00 0.00 0.00 45 1015.6
20260509122523 53 63 1.0 3.0 0.00 0.00 0.00 45 1015.5
20260509122423 53 63 1.0 3.0 0.00 0.00 0.00 46 1015.5
20260509122347 53 63 1.0 3.0 0.00 0.00 0.00 46 1015.5
20260509122325 53 63 1.0 3.0 0.00 0.00 0.00 44 1015.5
20260509122224 53 63 1.0 3.0 0.00 0.00 0.00 45 1015.4
20260509122122 53 63 1.0 3.0 0.00 0.00 0.00 45 1015.4
20260509122022 53 63 1.0 2.0 0.00 0.00 0.00 45 1015.4
20260509121920 53 63 1.0 2.0 0.00 0.00 0.00 44 1015.5
20260509121819 53 63 1.0 2.0 0.00 0.00 0.00 44 1015.5
20260509121716 53 61 1.0 2.0 0.00 0.00 0.00 44 1015.5
20260509121615 53 52 1.0 2.0 0.00 0.00 0.00 44 1015.5
20260509121517 53 247 1.0 3.0 0.00 0.00 0.00 44 1015.5
20260509121413 53 247 1.0 4.0 0.00 0.00 0.00 44 1015.5
20260509121347 53 247 1.0 4.0 0.00 0.00 0.00 44 1015.4
20260509121311 53 247 1.0 4.0 0.00 0.00 0.00 44 1015.4
20260509121211 53 247 1.0 4.0 0.00 0.00 0.00 43 1015.4
20260509121110 53 247 1.0 4.0 0.00 0.00 0.00 43 1015.4
20260509121016 53 247 1.0 4.0 0.00 0.00 0.00 43 1015.5
20260509120846 54 247 1.0 4.0 0.00 0.00 0.00 42 1015.4
20260509120812 54 247 1.0 4.0 0.00 0.00 0.00 42 1015.4
20260509120604 54 247 1.0 4.0 0.00 0.00 0.00 43 1015.5
20260509120504 54 247 1.0 4.0 0.00 0.00 0.00 43 1015.5
20260509120345 54 315 1.0 4.0 0.00 0.00 0.00 43 1015.5
20260509120300 54 315 1.0 3.0 0.00 0.00 0.00 43 1015.5
20260509120054 54 315 1.0 4.0 0.00 0.00 0.00 43 1015.4
20260509115954 54 315 1.0 4.0 0.00 0.00 0.00 42 1015.4
20260509115845 54 315 1.0 4.0 0.00 0.00 0.00 42 1015.3
20260509115757 54 315 1.0 4.0 0.00 0.00 0.00 42 1015.3
20260509115604 54 315 2.0 7.0 0.00 0.00 0.00 42 1015.3
20260509115450 54 315 2.0 7.0 0.00 0.00 0.00 41 1015.3
20260509115248 54 315 2.0 7.0 0.00 0.00 0.00 41 1015.2
20260509115146 54 315 2.0 7.0 0.00 0.00 0.00 42 1015.3
20260509115046 54 315 2.0 7.0 0.00 0.00 0.00 41 1015.3
20260509114946 54 315 3.0 7.0 0.00 0.00 0.00 41 1015.2
20260509114849 53 315 3.0 7.0 0.00 0.00 0.00 41 1015.2
20260509114636 53 294 2.0 8.0 0.00 0.00 0.00 42 1015.2
20260509114535 53 262 2.0 8.0 0.00 0.00 0.00 43 1015.1
20260509114436 53 309 2.0 8.0 0.00 0.00 0.00 42 1015.2
20260509114346 53 303 2.0 8.0 0.00 0.00 0.00 42 1015.1
20260509114342 53 290 2.0 8.0 0.00 0.00 0.00 42 1015.1
20260509114131 53 290 2.0 8.0 0.00 0.00 0.00 42 1015.1
20260509114030 53 290 2.0 8.0 0.00 0.00 0.00 43 1015.1
20260509113942 53 284 1.0 8.0 0.00 0.00 0.00 43 1015.1
20260509113935 53 340 1.0 8.0 0.00 0.00 0.00 43 1014.9
20260509113729 53 290 1.0 8.0 0.00 0.00 0.00 43 1014.9
20260509113630 53 332 1.0 4.0 0.00 0.00 0.00 43 1014.9
20260509113528 53 332 1.0 4.0 0.00 0.00 0.00 43 1014.9
20260509113427 53 332 1.0 4.0 0.00 0.00 0.00 42 1014.8
20260509113326 53 332 1.0 4.0 0.00 0.00 0.00 42 1014.9
20260509113224 53 332 1.0 4.0 0.00 0.00 0.00 42 1014.9
20260509113119 53 332 1.0 4.0 0.00 0.00 0.00 42 1014.8
20260509113017 53 332 1.0 4.0 0.00 0.00 0.00 43 1014.8
20260509112917 53 344 1.0 4.0 0.00 0.00 0.00 43 1014.8
20260509112817 53 63 1.0 4.0 0.00 0.00 0.00 43 1014.8
20260509112719 53 63 1.0 4.0 0.00 0.00 0.00 43 1014.8
20260509112619 54 63 1.0 4.0 0.00 0.00 0.00 43 1014.9
20260509112411 54 74 1.0 3.0 0.00 0.00 0.00 42 1014.8
20260509112343 54 75 1.0 3.0 0.00 0.00 0.00 42 1014.8
20260509112313 54 74 1.0 3.0 0.00 0.00 0.00 42 1014.8
20260509112210 54 75 1.0 3.0 0.00 0.00 0.00 42 1014.9
20260509112110 54 75 1.0 3.0 0.00 0.00 0.00 42 1014.8
20260509111903 54 74 0.0 3.0 0.00 0.00 0.00 41 1014.8
20260509111843 54 75 0.0 2.0 0.00 0.00 0.00 41 1014.8
20260509111805 54 74 0.0 2.0 0.00 0.00 0.00 41 1014.8
20260509111703 55 74 0.0 3.0 0.00 0.00 0.00 41 1014.8
20260509111602 55 75 0.0 3.0 0.00 0.00 0.00 41 1014.8
20260509111501 55 74 0.0 3.0 0.00 0.00 0.00 41 1014.7
20260509111401 55 75 1.0 3.0 0.00 0.00 0.00 40 1014.7
20260509111337 55 74 1.0 3.0 0.00 0.00 0.00 40 1014.8
20260509111259 55 75 1.0 3.0 0.00 0.00 0.00 40 1014.8
20260509111200 55 75 1.0 3.0 0.00 0.00 0.00 39 1014.8
20260509110952 55 74 1.0 5.0 0.00 0.00 0.00 40 1014.7
20260509110910 55 75 1.0 5.0 0.00 0.00 0.00 39 1014.8
20260509110903 55 74 2.0 5.0 0.00 0.00 0.00 39 1014.8
20260509110547 55 311 2.0 5.0 0.00 0.00 0.00 39 1014.8
20260509110505 55 311 2.0 5.0 0.00 0.00 0.00 40 1014.8
20260509110458 55 311 2.0 5.0 0.00 0.00 0.00 40 1014.8
20260509110145 55 311 2.0 5.0 0.00 0.00 0.00 39 1014.7
20260509110040 55 340 2.0 5.0 0.00 0.00 0.00 38 1014.7
20260509110034 55 287 2.0 7.0 0.00 0.00 0.00 39 1014.7
20260509105740 55 296 2.0 7.0 0.00 0.00 0.00 40 1014.7
20260509105639 55 45 2.0 7.0 0.00 0.00 0.00 39 1014.6
20260509105545 55 5 2.0 7.0 0.00 0.00 0.00 39 1014.7
20260509105312 55 107 3.0 7.0 0.00 0.00 0.00 39 1014.7
20260509105235 55 107 3.0 7.0 0.00 0.00 0.00 40 1014.7
20260509105133 55 107 3.0 7.0 0.00 0.00 0.00 40 1014.7
20260509105034 55 107 3.0 7.0 0.00 0.00 0.00 40 1014.6
20260509104932 55 111 3.0 7.0 0.00 0.00 0.00 39 1014.7
20260509104838 55 99 2.0 6.0 0.00 0.00 0.00 39 1014.7
20260509104524 55 82 2.0 6.0 0.00 0.00 0.00 40 1014.7
20260509104422 55 355 3.0 6.0 0.00 0.00 0.00 41 1014.6
20260509104322 55 15 3.0 6.0 0.00 0.00 0.00 40 1014.5
20260509104302 55 70 3.0 6.0 0.00 0.00 0.00 40 1014.5
20260509104222 55 179 3.0 6.0 0.00 0.00 0.00 40 1014.5
20260509104122 55 267 3.0 6.0 0.00 0.00 0.00 39 1014.6
20260509104018 55 287 3.0 6.0 0.00 0.00 0.00 40 1014.6
20260509103918 56 294 3.0 6.0 0.00 0.00 0.00 40 1014.6
20260509103818 56 252 3.0 6.0 0.00 0.00 0.00 39 1014.5
20260509103754 56 261 3.0 6.0 0.00 0.00 0.00 39 1014.5
20260509103718 56 261 3.0 6.0 0.00 0.00 0.00 39 1014.5
20260509103616 56 257 3.0 6.0 0.00 0.00 0.00 39 1014.5
20260509103511 56 257 3.0 6.0 0.00 0.00 0.00 39 1014.5
20260509103436 56 275 2.0 6.0 0.00 0.00 0.00 39 1014.6
20260509103428 56 254 2.0 6.0 0.00 0.00 0.00 38 1014.5
20260509103005 56 257 2.0 6.0 0.00 0.00 0.00 38 1014.5
20260509102906 56 223 2.0 5.0 0.00 0.00 0.00 38 1014.5
20260509102806 56 289 2.0 5.0 0.00 0.00 0.00 37 1014.6
20260509102743 56 265 2.0 5.0 0.00 0.00 0.00 37 1014.6
20260509102710 56 275 2.0 5.0 0.00 0.00 0.00 37 1014.6
20260509102500 56 219 3.0 5.0 0.00 0.00 0.00 37 1014.5
20260509102358 57 227 3.0 7.0 0.00 0.00 0.00 37 1014.5
20260509102309 57 234 3.0 7.0 0.00 0.00 0.00 37 1014.5
20260509102305 57 234 3.0 7.0 0.00 0.00 0.00 37 1014.6
20260509102059 57 233 3.0 8.0 0.00 0.00 0.00 37 1014.5
20260509101900 57 233 3.0 8.0 0.00 0.00 0.00 37 1014.6
20260509101731 58 225 4.0 8.0 0.00 0.00 0.00 37 1014.7
20260509101651 58 252 4.0 8.0 0.00 0.00 0.00 36 1014.7
20260509101553 58 255 4.0 8.0 0.00 0.00 0.00 36 1014.6
20260509101448 58 229 4.0 8.0 0.00 0.00 0.00 36 1014.6
20260509101347 58 272 4.0 8.0 0.00 0.00 0.00 36 1014.7
20260509101258 58 252 4.0 8.0 0.00 0.00 0.00 36 1014.5
20260509101251 58 261 4.0 8.0 0.00 0.00 0.00 36 1014.5
20260509101046 58 311 4.0 8.0 0.00 0.00 0.00 36 1014.6
20260509100941 58 273 4.0 8.0 0.00 0.00 0.00 35 1014.5
20260509100840 58 269 5.0 8.0 0.00 0.00 0.00 35 1014.6
20260509100740 58 264 4.0 8.0 0.00 0.00 0.00 35 1014.6
20260509100720 58 275 4.0 8.0 0.00 0.00 0.00 35 1014.6
20260509100640 58 277 4.0 8.0 0.00 0.00 0.00 35 1014.7
20260509100540 58 272 4.0 8.0 0.00 0.00 0.00 35 1014.6
20260509100434 59 292 4.0 8.0 0.00 0.00 0.00 35 1014.7
20260509100333 59 271 5.0 10.0 0.00 0.00 0.00 35 1014.7
20260509100234 59 270 5.0 11.0 0.00 0.00 0.00 34 1014.7
20260509100213 59 285 5.0 11.0 0.00 0.00 0.00 34 1014.7
20260509100134 59 277 5.0 12.0 0.00 0.00 0.00 34 1014.7
20260509100036 59 278 6.0 12.0 0.00 0.00 0.00 35 1014.7
20260509095827 59 266 6.0 13.0 0.00 0.00 0.00 35 1014.7
20260509095728 59 257 6.0 13.0 0.00 0.00 0.00 35 1014.7
20260509095707 59 295 6.0 13.0 0.00 0.00 0.00 34 1014.7
20260509095628 59 273 6.0 13.0 0.00 0.00 0.00 34 1014.7
20260509095554 59 277 6.0 13.0 0.00 0.00 0.00 34 1014.8
20260509095440 59 306 6.0 13.0 0.00 0.00 0.00 35 1014.8
20260509095021 59 267 6.0 13.0 0.00 0.00 0.00 34 1014.7
20260509094915 59 265 6.0 12.0 0.00 0.00 0.00 34 1014.8
20260509094815 59 292 7.0 12.0 0.00 0.00 0.00 34 1014.8
20260509094716 59 261 7.0 12.0 0.00 0.00 0.00 34 1014.7
20260509094656 59 295 7.0 12.0 0.00 0.00 0.00 34 1014.7
20260509094616 59 309 7.0 12.0 0.00 0.00 0.00 34 1014.7
20260509094515 59 261 7.0 12.0 0.00 0.00 0.00 33 1014.7
20260509094410 59 240 7.0 12.0 0.00 0.00 0.00 34 1014.8
20260509094404 59 294 8.0 12.0 0.00 0.00 0.00 34 1014.7
20260509094111 59 261 7.0 12.0 0.00 0.00 0.00 34 1014.8
20260509094009 59 263 7.0 12.0 0.00 0.00 0.00 34 1014.8
20260509093906 59 256 6.0 12.0 0.00 0.00 0.00 35 1014.7
20260509093806 59 298 6.0 12.0 0.00 0.00 0.00 35 1014.7
20260509093717 59 275 7.0 13.0 0.00 0.00 0.00 35 1014.7
20260509093711 59 250 7.0 13.0 0.00 0.00 0.00 35 1014.7
20260509093503 59 246 7.0 13.0 0.00 0.00 0.00 35 1014.8
20260509093411 59 245 7.0 15.0 0.00 0.00 0.00 35 1014.8
20260509093137 59 263 8.0 15.0 0.00 0.00 0.00 36 1014.7
20260509093057 59 266 8.0 15.0 0.00 0.00 0.00 36 1014.7
20260509092957 59 269 8.0 15.0 0.00 0.00 0.00 35 1014.8
20260509092852 58 259 8.0 15.0 0.00 0.00 0.00 35 1014.7
20260509092800 58 268 8.0 15.0 0.00 0.00 0.00 35 1014.7
20260509092631 58 245 8.0 15.0 0.00 0.00 0.00 36 1014.7
20260509092552 58 256 8.0 15.0 0.00 0.00 0.00 36 1014.7
20260509092451 58 267 8.0 15.0 0.00 0.00 0.00 36 1014.6
20260509092346 58 312 8.0 16.0 0.00 0.00 0.00 37 1014.7
20260509092252 58 269 9.0 17.0 0.00 0.00 0.00 38 1014.7
20260509092124 57 271 9.0 17.0 0.00 0.00 0.00 38 1014.6
20260509092046 57 275 9.0 17.0 0.00 0.00 0.00 38 1014.7
20260509091945 57 271 9.0 17.0 0.00 0.00 0.00 39 1014.6
20260509091840 56 275 9.0 17.0 0.00 0.00 0.00 40 1014.6
20260509091739 56 292 9.0 17.0 0.00 0.00 0.00 40 1014.7
20260509091639 55 219 8.0 17.0 0.00 0.00 0.00 41 1014.6
20260509091618 55 286 8.0 17.0 0.00 0.00 0.00 41 1014.6
20260509091541 55 277 8.0 17.0 0.00 0.00 0.00 41 1014.6
20260509091442 54 295 7.0 17.0 0.00 0.00 0.00 42 1014.6
20260509091233 52 296 5.0 15.0 0.00 0.00 0.00 47 1014.5
20260509091133 51 266 4.0 15.0 0.00 0.00 0.00 48 1014.5
20260509091113 51 275 4.0 13.0 0.00 0.00 0.00 48 1014.5
20260509091034 51 310 3.0 12.0 0.00 0.00 0.00 49 1014.5
20260509090935 50 272 2.0 12.0 0.00 0.00 0.00 51 1014.5
20260509090727 50 284 1.0 12.0 0.00 0.00 0.00 61 1014.6
20260509090713 50 252 1.0 9.0 0.00 0.00 0.00 61 1014.6
20260509090528 50 210 1.0 3.0 0.00 0.00 0.00 61 1014.6
20260509090428 50 306 1.0 2.0 0.00 0.00 0.00 61 1014.6
20260509090333 50 306 1.0 4.0 0.00 0.00 0.00 60 1014.5
20260509090100 50 306 1.0 4.0 0.00 0.00 0.00 61 1014.5
20260509090023 50 306 1.0 4.0 0.00 0.00 0.00 61 1014.5
20260509085922 50 306 1.0 4.0 0.00 0.00 0.00 61 1014.5
20260509085819 50 306 1.0 4.0 0.00 0.00 0.00 61 1014.3
20260509085719 50 306 1.0 4.0 0.00 0.00 0.00 61 1014.3
20260509085619 50 306 1.0 4.0 0.00 0.00 0.00 61 1014.3
20260509085555 50 306 1.0 4.0 0.00 0.00 0.00 61 1014.3
20260509085517 50 306 1.0 4.0 0.00 0.00 0.00 61 1014.3
20260509085416 50 306 0.0 4.0 0.00 0.00 0.00 61 1014.3
20260509085315 50 257 0.0 3.0 0.00 0.00 0.00 61 1014.3
20260509085214 50 294 0.0 1.0 0.00 0.00 0.00 61 1014.3
20260509085156 50 294 0.0 1.0 0.00 0.00 0.00 61 1014.3
20260509085012 51 294 0.0 1.0 0.00 0.00 0.00 61 1014.2
20260509084916 51 294 1.0 4.0 0.00 0.00 0.00 61 1014.2
20260509084708 51 294 1.0 4.0 0.00 0.00 0.00 61 1014.3
20260509084607 51 294 0.0 4.0 0.00 0.00 0.00 61 1014.2
20260509084543 51 294 1.0 4.0 0.00 0.00 0.00 61 1014.3
20260509084505 51 294 1.0 4.0 0.00 0.00 0.00 61 1014.3
20260509084403 51 294 1.0 4.0 0.00 0.00 0.00 61 1014.2
20260509084259 51 294 1.0 4.0 0.00 0.00 0.00 61 1014.2
20260509084157 51 294 1.0 4.0 0.00 0.00 0.00 61 1014.3
20260509084036 51 294 1.0 4.0 0.00 0.00 0.00 61 1014.3
20260509083957 51 294 1.0 4.0 0.00 0.00 0.00 61 1014.3
20260509083859 51 355 1.0 4.0 0.00 0.00 0.00 61 1014.3
20260509083653 51 319 1.0 4.0 0.00 0.00 0.00 61 1014.3
20260509083531 51 319 1.0 4.0 0.00 0.00 0.00 61 1014.3
20260509083453 51 329 1.0 4.0 0.00 0.00 0.00 61 1014.3
20260509083352 51 102 1.0 4.0 0.00 0.00 0.00 62 1014.3
20260509083251 51 102 1.0 4.0 0.00 0.00 0.00 62 1014.3
20260509083150 51 102 1.0 4.0 0.00 0.00 0.00 61 1014.3
20260509083132 51 73 1.0 4.0 0.00 0.00 0.00 61 1014.2
20260509082949 51 73 1.0 4.0 0.00 0.00 0.00 61 1014.3
20260509082846 51 73 1.0 4.0 0.00 0.00 0.00 61 1014.3
20260509082745 51 73 1.0 4.0 0.00 0.00 0.00 61 1014.3
20260509082644 51 73 1.0 4.0 0.00 0.00 0.00 61 1014.3
20260509082526 51 80 1.0 3.0 0.00 0.00 0.00 61 1014.3
20260509082446 51 80 1.0 3.0 0.00 0.00 0.00 61 1014.3
20260509082237 51 80 1.0 3.0 0.00 0.00 0.00 61 1014.3
20260509082137 51 339 1.0 3.0 0.00 0.00 0.00 60 1014.5
20260509082025 51 339 1.0 2.0 0.00 0.00 0.00 60 1014.5
20260509081936 51 339 1.0 2.0 0.00 0.00 0.00 60 1014.5
20260509081833 51 339 1.0 2.0 0.00 0.00 0.00 60 1014.5
20260509081733 51 339 1.0 2.0 0.00 0.00 0.00 60 1014.5
20260509081632 51 339 1.0 2.0 0.00 0.00 0.00 60 1014.5
20260509081525 52 339 1.0 3.0 0.00 0.00 0.00 60 1014.5
20260509081429 52 339 1.0 3.0 0.00 0.00 0.00 59 1014.5
20260509081327 52 339 1.0 3.0 0.00 0.00 0.00 59 1014.5
20260509081228 52 339 1.0 5.0 0.00 0.00 0.00 59 1014.5
20260509081021 52 339 2.0 5.0 0.00 0.00 0.00 58 1014.5
20260509080922 52 339 2.0 5.0 0.00 0.00 0.00 58 1014.3
20260509080822 52 339 2.0 5.0 0.00 0.00 0.00 58 1014.5
20260509080721 52 339 2.0 5.0 0.00 0.00 0.00 58 1014.3
20260509080620 52 339 3.0 5.0 0.00 0.00 0.00 58 1014.5
20260509080520 52 339 3.0 5.0 0.00 0.00 0.00 58 1014.5
20260509080417 53 339 3.0 5.0 0.00 0.00 0.00 58 1014.5
20260509080315 53 339 3.0 6.0 0.00 0.00 0.00 58 1014.3
20260509080211 53 323 3.0 6.0 0.00 0.00 0.00 58 1014.5
20260509080110 53 323 3.0 6.0 0.00 0.00 0.00 58 1014.5
20260509080008 53 323 3.0 6.0 0.00 0.00 0.00 58 1014.5
20260509075908 53 323 3.0 6.0 0.00 0.00 0.00 58 1014.5
20260509075811 53 323 3.0 6.0 0.00 0.00 0.00 58 1014.5
20260509075602 53 323 4.0 7.0 0.00 0.00 0.00 58 1014.5
20260509075524 53 323 4.0 8.0 0.00 0.00 0.00 58 1014.5
20260509075501 53 323 4.0 8.0 0.00 0.00 0.00 58 1014.5
20260509075408 53 323 4.0 9.0 0.00 0.00 0.00 58 1014.5
20260509075217 53 302 4.0 9.0 0.00 0.00 0.00 57 1014.5
20260509075102 53 329 4.0 9.0 0.00 0.00 0.00 57 1014.5
20260509074858 53 304 4.0 9.0 0.00 0.00 0.00 57 1014.6
20260509074757 53 311 4.0 9.0 0.00 0.00 0.00 57 1014.6
20260509074549 53 324 3.0 9.0 0.00 0.00 0.00 57 1014.7
20260509074519 53 316 3.0 9.0 0.00 0.00 0.00 57 1014.7
20260509074455 53 325 3.0 8.0 0.00 0.00 0.00 57 1014.7
20260509074249 53 323 3.0 6.0 0.00 0.00 0.00 58 1014.7
20260509074152 53 9 2.0 6.0 0.00 0.00 0.00 58 1014.7
20260509074019 53 325 2.0 5.0 0.00 0.00 0.00 58 1014.7
20260509073946 53 324 2.0 5.0 0.00 0.00 0.00 58 1014.7
20260509073847 53 346 3.0 5.0 0.00 0.00 0.00 58 1014.7
20260509073743 53 346 3.0 6.0 0.00 0.00 0.00 58 1014.8
20260509073640 53 345 3.0 6.0 0.00 0.00 0.00 58 1014.8
20260509073537 53 346 3.0 6.0 0.00 0.00 0.00 58 1014.9
20260509073520 53 345 3.0 6.0 0.00 0.00 0.00 58 1014.9
20260509073437 53 346 3.0 6.0 0.00 0.00 0.00 58 1014.8
20260509073337 53 346 3.0 6.0 0.00 0.00 0.00 58 1014.9
20260509073238 53 346 2.0 6.0 0.00 0.00 0.00 57 1014.9
20260509073134 53 341 2.0 6.0 0.00 0.00 0.00 57 1014.9
20260509073031 53 348 2.0 6.0 0.00 0.00 0.00 57 1014.9
20260509073020 53 0 2.0 6.0 0.00 0.00 0.00 57 1014.9
20260509072932 53 304 2.0 6.0 0.00 0.00 0.00 57 1014.9
20260509072832 53 315 2.0 6.0 0.00 0.00 0.00 57 1014.9
20260509072732 53 5 1.0 5.0 0.00 0.00 0.00 57 1014.9
20260509072626 53 336 1.0 5.0 0.00 0.00 0.00 57 1014.9
20260509072520 53 288 1.0 3.0 0.00 0.00 0.00 57 1014.9
20260509072425 53 288 1.0 4.0 0.00 0.00 0.00 57 1014.9
20260509072325 53 288 2.0 8.0 0.00 0.00 0.00 57 1014.9
20260509072225 53 288 3.0 9.0 0.00 0.00 0.00 57 1014.9
20260509072132 53 288 3.0 10.0 0.00 0.00 0.00 57 1014.9
20260509072018 53 288 4.0 10.0 0.00 0.00 0.00 57 1014.9
20260509071924 53 288 4.0 10.0 0.00 0.00 0.00 57 1014.9
20260509071821 53 288 4.0 10.0 0.00 0.00 0.00 58 1014.9
20260509071721 53 288 4.0 10.0 0.00 0.00 0.00 58 1014.9
20260509071514 53 288 5.0 10.0 0.00 0.00 0.00 59 1014.9
20260509071413 52 281 5.0 10.0 0.00 0.00 0.00 61 1015.1
20260509071314 52 296 4.0 10.0 0.00 0.00 0.00 62 1015.1
20260509071215 51 296 4.0 10.0 0.00 0.00 0.00 63 1014.9
20260509071125 51 329 4.0 9.0 0.00 0.00 0.00 64 1015.1
20260509071013 51 296 3.0 9.0 0.00 0.00 0.00 64 1014.9
20260509070913 51 281 3.0 6.0 0.00 0.00 0.00 65 1014.9
20260509070813 50 271 3.0 6.0 0.00 0.00 0.00 65 1014.8
20260509070713 50 269 3.0 5.0 0.00 0.00 0.00 65 1014.8
20260509070625 50 258 3.0 5.0 0.00 0.00 0.00 65 1014.8
20260509070509 50 252 3.0 5.0 0.00 0.00 0.00 65 1014.8
20260509070409 50 255 3.0 5.0 0.00 0.00 0.00 65 1014.8
20260509070309 50 250 3.0 5.0 0.00 0.00 0.00 65 1014.8
20260509070210 50 195 3.0 7.0 0.00 0.00 0.00 65 1014.8
20260509070109 50 195 3.0 7.0 0.00 0.00 0.00 65 1014.9
20260509070015 50 195 3.0 7.0 0.00 0.00 0.00 65 1014.8
20260509070007 51 196 3.0 7.0 0.00 0.00 0.00 65 1014.8
20260509065907 51 195 3.0 7.0 0.00 0.00 0.00 65 1014.8
20260509065807 51 195 4.0 7.0 0.00 0.00 0.00 65 1014.8
20260509065716 51 195 4.0 7.0 0.00 0.00 0.00 65 1014.9
20260509065507 51 178 4.0 9.0 0.00 0.00 0.00 66 1014.9
20260509065405 51 178 4.0 9.0 0.00 0.00 0.00 66 1014.9
20260509065312 51 184 5.0 9.0 0.00 0.00 0.00 66 1014.9
20260509065105 51 190 5.0 9.0 0.00 0.00 0.00 66 1014.9
20260509065015 51 193 5.0 9.0 0.00 0.00 0.00 66 1014.9
20260509065005 51 198 5.0 9.0 0.00 0.00 0.00 66 1014.9
20260509064903 51 215 5.0 9.0 0.00 0.00 0.00 66 1014.9
20260509064808 51 172 5.0 9.0 0.00 0.00 0.00 66 1014.9
20260509064602 51 167 5.0 9.0 0.00 0.00 0.00 66 1014.9
20260509064516 51 170 5.0 9.0 0.00 0.00 0.00 66 1015.1
20260509064501 51 164 5.0 9.0 0.00 0.00 0.00 66 1015.1
20260509064402 51 151 5.0 9.0 0.00 0.00 0.00 66 1015.1
20260509064301 51 189 5.0 9.0 0.00 0.00 0.00 66 1014.9
20260509064201 51 171 5.0 9.0 0.00 0.00 0.00 66 1015.1
20260509064121 51 171 5.0 9.0 0.00 0.00 0.00 66 1014.9
20260509064001 51 161 4.0 9.0 0.00 0.00 0.00 66 1015.1
20260509063901 51 181 4.0 9.0 0.00 0.00 0.00 66 1014.9
20260509063802 51 173 4.0 9.0 0.00 0.00 0.00 66 1014.9
20260509063657 51 167 4.0 9.0 0.00 0.00 0.00 67 1014.9
20260509063556 51 172 4.0 7.0 0.00 0.00 0.00 67 1015.1
20260509063515 51 169 4.0 7.0 0.00 0.00 0.00 67 1015.1
20260509063455 51 171 4.0 7.0 0.00 0.00 0.00 67 1015.1
20260509063359 51 169 4.0 7.0 0.00 0.00 0.00 67 1015.1
20260509063147 50 154 4.0 7.0 0.00 0.00 0.00 67 1015.1
20260509063047 50 154 4.0 7.0 0.00 0.00 0.00 67 1015.2
20260509063015 50 154 4.0 7.0 0.00 0.00 0.00 67 1015.2
20260509062947 50 157 4.0 7.0 0.00 0.00 0.00 67 1015.1
20260509062847 50 157 4.0 7.0 0.00 0.00 0.00 67 1015.1
20260509062746 50 172 4.0 7.0 0.00 0.00 0.00 66 1015.2
20260509062641 50 172 4.0 7.0 0.00 0.00 0.00 66 1015.1
20260509062540 51 182 4.0 7.0 0.00 0.00 0.00 66 1015.2
20260509062515 51 159 4.0 7.0 0.00 0.00 0.00 66 1015.2
20260509062441 51 170 4.0 7.0 0.00 0.00 0.00 66 1015.2
20260509062339 51 173 4.0 7.0 0.00 0.00 0.00 66 1015.2
20260509062238 51 186 4.0 7.0 0.00 0.00 0.00 66 1015.2
20260509062138 51 186 4.0 7.0 0.00 0.00 0.00 66 1015.2
20260509062015 51 178 4.0 7.0 0.00 0.00 0.00 66 1015.2
20260509061937 51 184 4.0 7.0 0.00 0.00 0.00 66 1015.2
20260509061837 51 183 3.0 7.0 0.00 0.00 0.00 66 1015.2
20260509061739 51 175 3.0 6.0 0.00 0.00 0.00 66 1015.2
20260509061636 51 170 3.0 6.0 0.00 0.00 0.00 65 1015.2
20260509061515 51 178 3.0 4.0 0.00 0.00 0.00 65 1015.2
20260509061435 51 178 3.0 4.0 0.00 0.00 0.00 65 1015.2
20260509061335 51 178 3.0 4.0 0.00 0.00 0.00 65 1015.3
20260509061233 51 178 2.0 4.0 0.00 0.00 0.00 65 1015.3
20260509061134 51 178 2.0 4.0 0.00 0.00 0.00 65 1015.2
20260509061015 51 178 2.0 4.0 0.00 0.00 0.00 65 1015.3
20260509060929 51 178 2.0 4.0 0.00 0.00 0.00 65 1015.3
20260509060828 52 178 2.0 4.0 0.00 0.00 0.00 64 1015.3
20260509060727 52 178 2.0 4.0 0.00 0.00 0.00 64 1015.3
20260509060627 52 178 2.0 7.0 0.00 0.00 0.00 64 1015.3
20260509060525 52 178 2.0 7.0 0.00 0.00 0.00 64 1015.4
20260509060323 52 178 3.0 7.0 0.00 0.00 0.00 64 1015.4
20260509060221 52 178 3.0 7.0 0.00 0.00 0.00 64 1015.4
20260509060128 52 178 4.0 9.0 0.00 0.00 0.00 64 1015.4
20260509060017 52 178 4.0 9.0 0.00 0.00 0.00 64 1015.4
20260509055912 52 178 5.0 9.0 0.00 0.00 0.00 64 1015.4
20260509055812 52 178 5.0 9.0 0.00 0.00 0.00 64 1015.4
20260509055718 52 178 5.0 9.0 0.00 0.00 0.00 64 1015.4
20260509055512 52 159 6.0 9.0 0.00 0.00 0.00 64 1015.4
20260509055406 52 155 6.0 9.0 0.00 0.00 0.00 64 1015.4
20260509055313 52 170 6.0 9.0 0.00 0.00 0.00 64 1015.4
20260509055117 52 150 5.0 9.0 0.00 0.00 0.00 64 1015.4
20260509055006 52 155 5.0 9.0 0.00 0.00 0.00 64 1015.5
20260509054759 52 160 5.0 9.0 0.00 0.00 0.00 64 1015.4
20260509054700 52 165 5.0 9.0 0.00 0.00 0.00 64 1015.5
20260509054559 52 167 5.0 8.0 0.00 0.00 0.00 64 1015.5
20260509054500 52 165 4.0 8.0 0.00 0.00 0.00 64 1015.5
20260509054253 52 159 4.0 8.0 0.00 0.00 0.00 64 1015.5
20260509054154 52 153 4.0 8.0 0.00 0.00 0.00 64 1015.5
20260509054104 52 159 4.0 8.0 0.00 0.00 0.00 64 1015.5
20260509054057 52 152 4.0 8.0 0.00 0.00 0.00 64 1015.5
20260509053849 52 143 4.0 8.0 0.00 0.00 0.00 64 1015.6
20260509053748 52 151 4.0 8.0 0.00 0.00 0.00 64 1015.6
20260509053655 52 153 4.0 8.0 0.00 0.00 0.00 64 1015.6
20260509053448 52 158 4.0 8.0 0.00 0.00 0.00 64 1015.6
20260509053343 52 162 4.0 8.0 0.00 0.00 0.00 64 1015.6
20260509053244 52 144 4.0 8.0 0.00 0.00 0.00 64 1015.6
20260509053144 52 175 4.0 8.0 0.00 0.00 0.00 64 1015.8
20260509053043 52 148 4.0 8.0 0.00 0.00 0.00 64 1015.8
20260509052949 52 166 4.0 9.0 0.00 0.00 0.00 64 1015.8
20260509052635 52 180 4.0 9.0 0.00 0.00 0.00 64 1015.9
20260509052536 52 187 3.0 9.0 0.00 0.00 0.00 64 1015.9
20260509052436 52 173 3.0 9.0 0.00 0.00 0.00 64 1015.9
20260509052340 52 176 3.0 9.0 0.00 0.00 0.00 64 1015.9
20260509052131 52 170 3.0 9.0 0.00 0.00 0.00 64 1015.9
20260509052032 52 186 3.0 9.0 0.00 0.00 0.00 63 1015.9
20260509051931 52 178 3.0 5.0 0.00 0.00 0.00 63 1015.9
20260509051832 52 175 3.0 5.0 0.00 0.00 0.00 63 1015.9
20260509051625 52 171 3.0 5.0 0.00 0.00 0.00 63 1016.0
20260509051525 52 175 3.0 7.0 0.00 0.00 0.00 63 1016.0
20260509051424 52 148 3.0 7.0 0.00 0.00 0.00 63 1016.0
20260509051317 52 153 3.0 7.0 0.00 0.00 0.00 63 1016.0
20260509051217 52 168 3.0 7.0 0.00 0.00 0.00 63 1016.0
20260509051118 52 196 3.0 7.0 0.00 0.00 0.00 63 1016.0
20260509051017 53 168 3.0 7.0 0.00 0.00 0.00 63 1016.0
20260509050917 53 168 3.0 7.0 0.00 0.00 0.00 63 1016.0
20260509050819 53 168 3.0 7.0 0.00 0.00 0.00 63 1016.0
20260509050618 53 180 3.0 7.0 0.00 0.00 0.00 63 1016.0
20260509050411 53 177 3.0 7.0 0.00 0.00 0.00 63 1016.0
20260509050306 53 178 3.0 7.0 0.00 0.00 0.00 63 1016.0
20260509050206 53 192 3.0 7.0 0.00 0.00 0.00 62 1016.0
20260509050106 53 187 3.0 7.0 0.00 0.00 0.00 62 1016.0
20260509050006 53 190 3.0 7.0 0.00 0.00 0.00 62 1016.1
20260509045905 53 216 3.0 7.0 0.00 0.00 0.00 62 1016.0
20260509045759 53 204 3.0 7.0 0.00 0.00 0.00 62 1016.1
20260509045700 53 216 3.0 6.0 0.00 0.00 0.00 62 1016.1
20260509045600 53 198 3.0 6.0 0.00 0.00 0.00 62 1016.1
20260509045500 53 198 3.0 6.0 0.00 0.00 0.00 62 1016.1
20260509045401 53 186 3.0 5.0 0.00 0.00 0.00 62 1016.1
20260509045154 53 215 3.0 5.0 0.00 0.00 0.00 62 1016.1
20260509045055 53 201 3.0 5.0 0.00 0.00 0.00 62 1016.2
20260509044954 53 200 3.0 5.0 0.00 0.00 0.00 62 1016.2
20260509044853 53 205 3.0 5.0 0.00 0.00 0.00 62 1016.2
20260509044756 53 181 3.0 5.0 0.00 0.00 0.00 63 1016.4
20260509044606 53 187 3.0 5.0 0.00 0.00 0.00 63 1016.4
20260509044559 53 198 3.0 5.0 0.00 0.00 0.00 63 1016.4
20260509044242 53 207 3.0 5.0 0.00 0.00 0.00 63 1016.4
20260509044142 53 205 3.0 5.0 0.00 0.00 0.00 63 1016.5
20260509044059 53 203 3.0 5.0 0.00 0.00 0.00 63 1016.5
20260509043945 53 210 3.0 5.0 0.00 0.00 0.00 62 1016.6
20260509043742 53 230 3.0 5.0 0.00 0.00 0.00 62 1016.5
20260509043536 54 211 3.0 6.0 0.00 0.00 0.00 62 1016.5
20260509043437 54 211 3.0 6.0 0.00 0.00 0.00 62 1016.6
20260509043335 54 211 3.0 6.0 0.00 0.00 0.00 62 1016.5
20260509043235 54 188 3.0 6.0 0.00 0.00 0.00 62 1016.5
20260509043133 54 210 3.0 6.0 0.00 0.00 0.00 62 1016.5
20260509043031 54 195 3.0 6.0 0.00 0.00 0.00 62 1016.5
20260509042932 54 204 3.0 6.0 0.00 0.00 0.00 62 1016.5
20260509042830 54 204 3.0 6.0 0.00 0.00 0.00 62 1016.5
20260509042745 54 169 3.0 6.0 0.00 0.00 0.00 62 1016.5
20260509042341 54 209 3.0 5.0 0.00 0.00 0.00 62 1016.6
20260509042325 54 207 3.0 5.0 0.00 0.00 0.00 62 1016.6
20260509042225 54 226 2.0 5.0 0.00 0.00 0.00 62 1016.7
20260509042018 54 209 2.0 5.0 0.00 0.00 0.00 62 1016.8
20260509041918 54 201 2.0 4.0 0.00 0.00 0.00 62 1016.8
20260509041841 54 201 2.0 4.0 0.00 0.00 0.00 62 1016.8
20260509041819 54 194 2.0 4.0 0.00 0.00 0.00 62 1016.8
20260509041611 54 223 2.0 4.0 0.00 0.00 0.00 62 1017.0
20260509041512 54 227 2.0 4.0 0.00 0.00 0.00 62 1017.0
20260509041412 54 220 2.0 4.0 0.00 0.00 0.00 61 1016.8
20260509041341 54 244 1.0 4.0 0.00 0.00 0.00 61 1016.8
20260509041311 54 225 1.0 4.0 0.00 0.00 0.00 61 1016.8
20260509041208 54 216 2.0 4.0 0.00 0.00 0.00 61 1016.8
20260509041201 55 216 2.0 4.0 0.00 0.00 0.00 61 1016.8
20260509040805 55 216 2.0 4.0 0.00 0.00 0.00 60 1016.8
20260509040659 55 216 1.0 4.0 0.00 0.00 0.00 60 1016.8
20260509040557 55 216 1.0 3.0 0.00 0.00 0.00 60 1016.8
20260509040457 55 216 1.0 3.0 0.00 0.00 0.00 60 1017.0
20260509040338 55 216 1.0 3.0 0.00 0.00 0.00 59 1017.0
20260509040257 55 216 1.0 3.0 0.00 0.00 0.00 59 1016.8
20260509040151 55 216 1.0 3.0 0.00 0.00 0.00 59 1017.0
20260509040052 55 238 1.0 3.0 0.00 0.00 0.00 58 1016.8
20260509035951 55 206 1.0 3.0 0.00 0.00 0.00 58 1017.0
20260509035934 55 206 1.0 3.0 0.00 0.00 0.00 58 1017.0
20260509035502 56 206 2.0 3.0 0.00 0.00 0.00 57 1017.0
20260509035149 56 206 2.0 3.0 0.00 0.00 0.00 56 1017.1
20260509035056 56 206 2.0 3.0 0.00 0.00 0.00 55 1017.0
20260509034840 56 206 2.0 3.0 0.00 0.00 0.00 55 1017.1
20260509034747 56 206 2.0 3.0 0.00 0.00 0.00 55 1017.1
20260509034648 56 206 2.0 3.0 0.00 0.00 0.00 54 1017.1
20260509034551 56 202 2.0 3.0 0.00 0.00 0.00 54 1017.1
20260509034339 56 202 2.0 3.0 0.00 0.00 0.00 53 1017.1
20260509034244 56 202 1.0 3.0 0.00 0.00 0.00 53 1017.2
20260509034143 56 202 1.0 3.0 0.00 0.00 0.00 53 1017.2
20260509034044 56 237 1.0 3.0 0.00 0.00 0.00 53 1017.2
20260509033943 56 238 1.0 3.0 0.00 0.00 0.00 53 1017.2
20260509033836 56 238 1.0 3.0 0.00 0.00 0.00 53 1017.2
20260509033743 57 238 1.0 3.0 0.00 0.00 0.00 53 1017.2
20260509033643 57 238 1.0 3.0 0.00 0.00 0.00 53 1017.3
20260509033544 57 238 2.0 3.0 0.00 0.00 0.00 53 1017.3
20260509033441 57 238 2.0 3.0 0.00 0.00 0.00 53 1017.2
20260509033343 57 238 2.0 3.0 0.00 0.00 0.00 53 1017.3
20260509033336 57 237 2.0 3.0 0.00 0.00 0.00 53 1017.3
20260509033247 57 238 2.0 3.0 0.00 0.00 0.00 53 1017.3
20260509033040 57 238 1.0 3.0 0.00 0.00 0.00 53 1017.3
20260509032939 57 238 1.0 3.0 0.00 0.00 0.00 52 1017.3
20260509032845 57 121 1.0 3.0 0.00 0.00 0.00 51 1017.3
20260509032639 57 121 1.0 2.0 0.00 0.00 0.00 51 1017.3
20260509032539 57 121 1.0 2.0 0.00 0.00 0.00 51 1017.2
20260509032439 57 121 1.0 2.0 0.00 0.00 0.00 51 1017.2
20260509032339 57 121 1.0 2.0 0.00 0.00 0.00 50 1017.2
20260509032239 57 121 1.0 3.0 0.00 0.00 0.00 49 1017.2
20260509032146 57 121 1.0 3.0 0.00 0.00 0.00 49 1017.2
20260509031952 57 121 1.0 3.0 0.00 0.00 0.00 50 1017.1
20260509031944 57 121 1.0 3.0 0.00 0.00 0.00 50 1017.1
20260509031746 57 121 1.0 3.0 0.00 0.00 0.00 50 1017.2
20260509031536 57 121 1.0 3.0 0.00 0.00 0.00 49 1017.1
20260509031437 57 121 1.0 3.0 0.00 0.00 0.00 49 1017.1
20260509031335 57 121 0.0 3.0 0.00 0.00 0.00 49 1017.1
20260509031234 58 121 0.0 3.0 0.00 0.00 0.00 49 1017.1
20260509031131 58 121 0.0 3.0 0.00 0.00 0.00 49 1017.0
20260509031027 58 77 0.0 2.0 0.00 0.00 0.00 48 1017.0
20260509030943 58 77 0.0 2.0 0.00 0.00 0.00 48 1017.1
20260509030827 58 77 0.0 2.0 0.00 0.00 0.00 48 1017.0
20260509030727 58 77 0.0 3.0 0.00 0.00 0.00 48 1017.0
20260509030627 58 77 0.0 3.0 0.00 0.00 0.00 48 1017.0
20260509030527 58 77 1.0 3.0 0.00 0.00 0.00 48 1017.0
20260509030427 58 77 1.0 3.0 0.00 0.00 0.00 48 1016.8
20260509030340 58 77 1.0 3.0 0.00 0.00 0.00 47 1016.8
20260509030032 58 77 1.0 4.0 0.00 0.00 0.00 47 1016.8
20260509025825 59 77 2.0 4.0 0.00 0.00 0.00 47 1016.8
20260509025618 59 77 2.0 4.0 0.00 0.00 0.00 47 1016.8
20260509025518 59 77 2.0 4.0 0.00 0.00 0.00 47 1016.8
20260509025417 59 77 2.0 4.0 0.00 0.00 0.00 47 1016.7
20260509025313 59 77 2.0 4.0 0.00 0.00 0.00 46 1016.7
20260509025213 59 77 2.0 6.0 0.00 0.00 0.00 47 1016.7
20260509025120 59 77 3.0 6.0 0.00 0.00 0.00 46 1016.7
20260509024942 59 77 3.0 6.0 0.00 0.00 0.00 46 1016.6
20260509024813 59 31 3.0 6.0 0.00 0.00 0.00 46 1016.7
20260509024713 59 92 3.0 6.0 0.00 0.00 0.00 46 1016.7
20260509024613 59 92 3.0 6.0 0.00 0.00 0.00 46 1016.6
20260509024513 59 97 3.0 6.0 0.00 0.00 0.00 46 1016.6
20260509024413 59 85 3.0 6.0 0.00 0.00 0.00 46 1016.7
20260509024333 60 104 3.0 6.0 0.00 0.00 0.00 46 1016.7
20260509024311 60 103 3.0 6.0 0.00 0.00 0.00 46 1016.7
20260509024211 60 78 3.0 6.0 0.00 0.00 0.00 46 1016.6
20260509024112 60 107 2.0 6.0 0.00 0.00 0.00 46 1016.7
20260509023905 60 107 2.0 6.0 0.00 0.00 0.00 45 1016.6
20260509023830 60 107 2.0 6.0 0.00 0.00 0.00 45 1016.7
20260509023805 60 107 2.0 6.0 0.00 0.00 0.00 46 1016.7
20260509023705 60 107 2.0 6.0 0.00 0.00 0.00 46 1016.6
20260509023605 60 107 2.0 6.0 0.00 0.00 0.00 46 1016.7
20260509023505 60 98 3.0 6.0 0.00 0.00 0.00 45 1016.7
20260509023407 60 82 3.0 6.0 0.00 0.00 0.00 45 1016.6
20260509023331 60 93 3.0 6.0 0.00 0.00 0.00 45 1016.6
20260509023306 60 70 3.0 6.0 0.00 0.00 0.00 45 1016.6
20260509023205 60 70 3.0 6.0 0.00 0.00 0.00 45 1016.6
20260509023105 60 70 3.0 6.0 0.00 0.00 0.00 45 1016.6
20260509023005 60 70 3.0 6.0 0.00 0.00 0.00 45 1016.6
20260509022901 60 83 3.0 6.0 0.00 0.00 0.00 45 1016.6
20260509022826 60 109 3.0 6.0 0.00 0.00 0.00 45 1016.5
20260509022801 60 74 3.0 6.0 0.00 0.00 0.00 45 1016.5
20260509022701 60 103 3.0 6.0 0.00 0.00 0.00 45 1016.5
20260509022601 60 71 3.0 6.0 0.00 0.00 0.00 45 1016.5
20260509022509 60 86 3.0 6.0 0.00 0.00 0.00 45 1016.5
20260509022327 60 67 3.0 6.0 0.00 0.00 0.00 45 1016.5
20260509022301 60 107 3.0 6.0 0.00 0.00 0.00 45 1016.5
20260509022202 60 74 3.0 6.0 0.00 0.00 0.00 45 1016.5
20260509022102 60 103 3.0 6.0 0.00 0.00 0.00 45 1016.5
20260509022008 60 118 3.0 6.0 0.00 0.00 0.00 45 1016.5
20260509021827 61 96 3.0 6.0 0.00 0.00 0.00 45 1016.5
20260509021803 61 98 3.0 6.0 0.00 0.00 0.00 45 1016.5
20260509021701 61 88 3.0 6.0 0.00 0.00 0.00 45 1016.5
20260509021602 61 90 3.0 6.0 0.00 0.00 0.00 45 1016.5
20260509021502 61 101 3.0 6.0 0.00 0.00 0.00 44 1016.5
20260509021402 61 103 3.0 6.0 0.00 0.00 0.00 44 1016.5
20260509021327 61 93 2.0 6.0 0.00 0.00 0.00 44 1016.5
20260509021302 61 92 2.0 6.0 0.00 0.00 0.00 44 1016.5
20260509021201 61 92 2.0 6.0 0.00 0.00 0.00 45 1016.4
20260509021101 61 107 2.0 6.0 0.00 0.00 0.00 45 1016.4
20260509020956 61 92 2.0 6.0 0.00 0.00 0.00 44 1016.4
20260509020859 61 92 2.0 7.0 0.00 0.00 0.00 44 1016.4
20260509020827 61 92 3.0 7.0 0.00 0.00 0.00 44 1016.4
20260509020758 61 92 3.0 7.0 0.00 0.00 0.00 44 1016.4
20260509020705 61 98 3.0 7.0 0.00 0.00 0.00 44 1016.4
20260509020504 62 95 3.0 7.0 0.00 0.00 0.00 44 1016.4
20260509020327 62 98 3.0 7.0 0.00 0.00 0.00 44 1016.2
20260509020257 62 85 3.0 7.0 0.00 0.00 0.00 44 1016.2
20260509020158 62 88 3.0 7.0 0.00 0.00 0.00 44 1016.4
20260509020057 62 105 3.0 7.0 0.00 0.00 0.00 43 1016.2
20260509015958 62 107 3.0 7.0 0.00 0.00 0.00 43 1016.2
20260509015910 62 92 3.0 6.0 0.00 0.00 0.00 44 1016.2
20260509015902 62 115 3.0 6.0 0.00 0.00 0.00 44 1016.4
20260509015658 62 100 3.0 6.0 0.00 0.00 0.00 44 1016.2
20260509015557 62 90 3.0 6.0 0.00 0.00 0.00 44 1016.2
20260509015456 62 96 3.0 6.0 0.00 0.00 0.00 44 1016.2
20260509015433 62 95 3.0 6.0 0.00 0.00 0.00 43 1016.2
20260509015258 62 108 3.0 6.0 0.00 0.00 0.00 43 1016.2
20260509015157 62 106 3.0 6.0 0.00 0.00 0.00 43 1016.2
20260509015053 62 94 3.0 6.0 0.00 0.00 0.00 43 1016.2
20260509014953 62 94 3.0 6.0 0.00 0.00 0.00 43 1016.2
20260509014853 62 94 3.0 4.0 0.00 0.00 0.00 43 1016.1
20260509014827 62 90 3.0 6.0 0.00 0.00 0.00 43 1016.1
20260509014753 62 90 3.0 6.0 0.00 0.00 0.00 43 1016.1
20260509014653 63 90 3.0 6.0 0.00 0.00 0.00 43 1016.1
20260509014553 63 85 3.0 7.0 0.00 0.00 0.00 43 1016.0
20260509014500 63 122 3.0 7.0 0.00 0.00 0.00 43 1016.1
20260509014323 63 98 3.0 7.0 0.00 0.00 0.00 43 1016.1
20260509014254 63 85 3.0 7.0 0.00 0.00 0.00 43 1016.0
20260509014201 63 85 2.0 7.0 0.00 0.00 0.00 42 1016.1
20260509013953 63 95 2.0 7.0 0.00 0.00 0.00 42 1016.1
20260509013853 63 84 2.0 7.0 0.00 0.00 0.00 42 1016.1
20260509013822 63 105 2.0 7.0 0.00 0.00 0.00 42 1016.1
20260509013753 63 103 2.0 7.0 0.00 0.00 0.00 42 1016.0
20260509013654 63 115 2.0 7.0 0.00 0.00 0.00 42 1016.0
20260509013552 64 99 2.0 6.0 0.00 0.00 0.00 42 1016.0
20260509013453 64 113 2.0 6.0 0.00 0.00 0.00 41 1016.0
20260509013353 64 113 3.0 6.0 0.00 0.00 0.00 42 1016.1
20260509013323 64 113 3.0 6.0 0.00 0.00 0.00 42 1016.1
20260509013253 64 113 3.0 6.0 0.00 0.00 0.00 42 1016.0
20260509013150 64 113 3.0 6.0 0.00 0.00 0.00 42 1016.0
20260509013051 64 121 3.0 6.0 0.00 0.00 0.00 41 1016.0
20260509012948 64 106 3.0 6.0 0.00 0.00 0.00 41 1016.0
20260509012822 64 106 3.0 6.0 0.00 0.00 0.00 41 1016.0
20260509012749 64 106 3.0 6.0 0.00 0.00 0.00 41 1016.0
20260509012649 64 106 3.0 6.0 0.00 0.00 0.00 41 1016.0
20260509012549 65 106 3.0 7.0 0.00 0.00 0.00 41 1016.0
20260509012448 65 106 3.0 7.0 0.00 0.00 0.00 41 1016.0
20260509012324 65 106 3.0 7.0 0.00 0.00 0.00 41 1016.0
20260509012306 65 106 3.0 7.0 0.00 0.00 0.00 40 1016.0
20260509011949 65 106 3.0 7.0 0.00 0.00 0.00 40 1016.0
20260509011849 65 145 3.0 7.0 0.00 0.00 0.00 40 1016.0
20260509011822 65 125 3.0 7.0 0.00 0.00 0.00 40 1016.0
20260509011749 65 128 3.0 7.0 0.00 0.00 0.00 40 1016.0
20260509011657 66 101 3.0 7.0 0.00 0.00 0.00 40 1016.0
20260509011450 66 117 3.0 6.0 0.00 0.00 0.00 39 1016.0
20260509011431 66 102 2.0 6.0 0.00 0.00 0.00 39 1016.0
20260509011246 66 88 2.0 6.0 0.00 0.00 0.00 38 1016.0
20260509011145 66 111 2.0 6.0 0.00 0.00 0.00 38 1015.9
20260509011044 66 94 2.0 6.0 0.00 0.00 0.00 38 1015.9
20260509010945 67 94 2.0 6.0 0.00 0.00 0.00 37 1015.9
20260509010845 67 94 2.0 6.0 0.00 0.00 0.00 37 1015.9
20260509010824 67 94 2.0 6.0 0.00 0.00 0.00 38 1015.9
20260509010745 67 95 2.0 6.0 0.00 0.00 0.00 38 1015.9
20260509010645 67 78 2.0 6.0 0.00 0.00 0.00 38 1015.9
20260509010558 67 160 2.0 6.0 0.00 0.00 0.00 37 1015.9
20260509010322 67 105 3.0 6.0 0.00 0.00 0.00 37 1015.9
20260509010246 67 105 3.0 8.0 0.00 0.00 0.00 37 1015.9
20260509010145 67 105 4.0 8.0 0.00 0.00 0.00 37 1015.9
20260509010044 68 116 4.0 8.0 0.00 0.00 0.00 37 1015.9
20260509005945 68 50 4.0 8.0 0.00 0.00 0.00 36 1015.9
20260509005822 68 50 4.0 8.0 0.00 0.00 0.00 36 1015.9
20260509005759 68 53 3.0 8.0 0.00 0.00 0.00 35 1016.0
20260509005445 69 106 3.0 8.0 0.00 0.00 0.00 35 1015.9
20260509005339 69 106 3.0 8.0 0.00 0.00 0.00 35 1015.9
20260509005322 69 113 3.0 8.0 0.00 0.00 0.00 35 1015.9
20260509005239 69 131 3.0 8.0 0.00 0.00 0.00 36 1015.9
20260509005144 69 118 3.0 8.0 0.00 0.00 0.00 35 1015.9
20260509004936 69 112 3.0 7.0 0.00 0.00 0.00 35 1015.9
20260509004835 69 155 3.0 9.0 0.00 0.00 0.00 36 1015.9
20260509004823 69 138 3.0 9.0 0.00 0.00 0.00 36 1015.9
20260509004741 69 117 4.0 9.0 0.00 0.00 0.00 35 1015.9
20260509004543 69 114 5.0 9.0 0.00 0.00 0.00 34 1015.9
20260509004536 69 104 5.0 11.0 0.00 0.00 0.00 35 1016.0
20260509004222 70 67 5.0 11.0 0.00 0.00 0.00 34 1016.0
20260509004131 70 78 5.0 11.0 0.00 0.00 0.00 33 1016.0
20260509003922 70 85 4.0 11.0 0.00 0.00 0.00 33 1015.9
20260509003824 71 111 3.0 11.0 0.00 0.00 0.00 33 1015.9
20260509003819 71 123 3.0 11.0 0.00 0.00 0.00 33 1015.9
20260509003725 71 90 3.0 11.0 0.00 0.00 0.00 33 1015.9
20260509003523 71 132 1.0 10.0 0.00 0.00 0.00 34 1015.9
20260509003318 71 121 1.0 8.0 0.00 0.00 0.00 33 1015.9
20260509003309 72 111 1.0 8.0 0.00 0.00 0.00 33 1015.9
20260509003209 71 200 0.0 4.0 0.00 0.00 0.00 34 1015.9
20260509003109 71 126 0.0 3.0 0.00 0.00 0.00 34 1015.9
20260509003009 71 125 0.0 2.0 0.00 0.00 0.00 34 1015.9
20260509002908 71 126 0.0 2.0 0.00 0.00 0.00 35 1015.9
20260509002806 71 126 0.0 2.0 0.00 0.00 0.00 35 1015.9
20260509002704 70 126 1.0 3.0 0.00 0.00 0.00 34 1016.0
20260509002603 70 126 1.0 3.0 0.00 0.00 0.00 34 1016.0
20260509002503 70 126 1.0 3.0 0.00 0.00 0.00 36 1016.0
20260509002400 70 126 1.0 4.0 0.00 0.00 0.00 37 1015.9
20260509002320 70 126 1.0 4.0 0.00 0.00 0.00 35 1016.0
20260509002306 70 126 1.0 4.0 0.00 0.00 0.00 35 1016.0
20260509002055 70 126 2.0 4.0 0.00 0.00 0.00 35 1015.9
20260509001955 69 126 2.0 4.0 0.00 0.00 0.00 35 1015.9
20260509001924 69 126 2.0 4.0 0.00 0.00 0.00 35 1016.0
20260509001749 69 126 2.0 4.0 0.00 0.00 0.00 35 1016.0
20260509001648 69 125 2.0 4.0 0.00 0.00 0.00 35 1016.0
20260509001546 69 126 2.0 4.0 0.00 0.00 0.00 35 1015.9
20260509001453 69 42 2.0 4.0 0.00 0.00 0.00 35 1015.9
20260509001317 69 42 2.0 9.0 0.00 0.00 0.00 35 1015.9
20260509001245 69 42 2.0 9.0 0.00 0.00 0.00 35 1016.0
20260509001145 69 42 2.0 9.0 0.00 0.00 0.00 35 1015.9
20260509001045 69 42 2.0 9.0 0.00 0.00 0.00 36 1015.9
20260509000943 69 42 2.0 9.0 0.00 0.00 0.00 36 1016.0
20260509000844 69 42 3.0 9.0 0.00 0.00 0.00 36 1016.0
20260509000644 69 42 3.0 9.0 0.00 0.00 0.00 35 1016.0
20260509000456 69 148 3.0 9.0 0.00 0.00 0.00 35 1016.0
20260509000341 69 126 3.0 6.0 0.00 0.00 0.00 35 1015.9
20260509000029 69 137 3.0 6.0 0.00 0.00 0.00 36 1016.0
20260508235930 69 171 3.0 6.0 0.00 0.00 0.00 35 1016.0
20260508235826 69 175 2.0 6.0 0.00 0.00 0.00 35 1016.0
20260508235813 69 174 2.0 5.0 0.00 0.00 0.00 35 1016.0
20260508235720 69 134 2.0 5.0 0.00 0.00 0.00 35 1015.9
20260508235621 69 158 3.0 5.0 0.00 0.00 0.00 36 1016.0
20260508235521 69 157 2.0 4.0 0.00 0.00 0.00 35 1016.0
20260508235421 69 91 2.0 4.0 0.00 0.00 0.00 36 1016.0
20260508235321 69 96 3.0 6.0 0.00 0.00 0.00 35 1015.9
20260508235310 69 115 3.0 6.0 0.00 0.00 0.00 35 1015.9
20260508235218 69 35 3.0 6.0 0.00 0.00 0.00 34 1016.0
20260508235115 69 35 3.0 6.0 0.00 0.00 0.00 34 1016.0
20260508235015 69 35 3.0 6.0 0.00 0.00 0.00 34 1016.0
20260508234912 69 89 2.0 6.0 0.00 0.00 0.00 34 1016.0
20260508234812 70 72 2.0 6.0 0.00 0.00 0.00 33 1016.0
20260508234723 70 76 2.0 6.0 0.00 0.00 0.00 33 1016.0
20260508234409 71 93 2.0 6.0 0.00 0.00 0.00 33 1016.0
20260508234306 71 51 2.0 6.0 0.00 0.00 0.00 33 1016.0
20260508234201 71 56 2.0 6.0 0.00 0.00 0.00 34 1016.0
20260508234100 71 56 2.0 6.0 0.00 0.00 0.00 34 1016.0
20260508234001 71 157 2.0 6.0 0.00 0.00 0.00 33 1016.0
20260508233901 71 157 2.0 6.0 0.00 0.00 0.00 33 1016.0
20260508233800 71 157 2.0 7.0 0.00 0.00 0.00 35 1016.0
20260508233655 71 180 2.0 7.0 0.00 0.00 0.00 34 1016.0
20260508233555 71 154 2.0 7.0 0.00 0.00 0.00 34 1016.0
20260508233454 71 121 2.0 7.0 0.00 0.00 0.00 35 1016.0
20260508233355 71 117 3.0 7.0 0.00 0.00 0.00 34 1016.0
20260508233255 71 96 3.0 8.0 0.00 0.00 0.00 35 1016.0
20260508233148 71 96 3.0 8.0 0.00 0.00 0.00 34 1016.0
20260508233048 71 96 4.0 8.0 0.00 0.00 0.00 33 1016.1
20260508232956 71 96 4.0 8.0 0.00 0.00 0.00 34 1016.1
20260508232749 71 237 3.0 8.0 0.00 0.00 0.00 34 1016.1
20260508232658 71 229 3.0 8.0 0.00 0.00 0.00 34 1016.1
20260508232342 71 151 3.0 8.0 0.00 0.00 0.00 34 1016.1
20260508232243 71 128 3.0 7.0 0.00 0.00 0.00 34 1016.0
20260508232148 71 136 3.0 7.0 0.00 0.00 0.00 34 1016.1
20260508231942 71 104 3.0 7.0 0.00 0.00 0.00 34 1016.0
20260508231839 71 28 3.0 7.0 0.00 0.00 0.00 34 1016.0
20260508231736 71 78 3.0 7.0 0.00 0.00 0.00 34 1016.0
20260508231638 71 78 3.0 7.0 0.00 0.00 0.00 34 1016.0
20260508231431 71 35 3.0 7.0 0.00 0.00 0.00 34 1016.0
20260508231341 71 59 3.0 7.0 0.00 0.00 0.00 34 1016.0
20260508231230 71 331 3.0 7.0 0.00 0.00 0.00 34 1016.0
20260508231127 71 61 3.0 7.0 0.00 0.00 0.00 34 1016.0
20260508231027 71 74 3.0 7.0 0.00 0.00 0.00 34 1015.9
20260508230927 71 91 3.0 7.0 0.00 0.00 0.00 34 1016.0
20260508230828 71 55 3.0 7.0 0.00 0.00 0.00 35 1016.0
20260508230724 71 88 3.0 7.0 0.00 0.00 0.00 35 1016.0
20260508230626 70 95 3.0 6.0 0.00 0.00 0.00 34 1016.0
20260508230419 70 50 3.0 6.0 0.00 0.00 0.00 34 1016.0
20260508230319 70 24 3.0 8.0 0.00 0.00 0.00 33 1016.0
20260508230222 70 24 3.0 9.0 0.00 0.00 0.00 34 1016.0
20260508230015 70 34 4.0 9.0 0.00 0.00 0.00 34 1016.0
20260508225922 70 36 3.0 9.0 0.00 0.00 0.00 35 1016.1
20260508225712 70 316 4.0 10.0 0.00 0.00 0.00 35 1016.0
20260508225609 70 90 4.0 10.0 0.00 0.00 0.00 34 1016.1
20260508225507 70 90 4.0 10.0 0.00 0.00 0.00 34 1016.0
20260508225407 70 90 4.0 10.0 0.00 0.00 0.00 34 1016.1
20260508225307 70 47 4.0 10.0 0.00 0.00 0.00 34 1016.0
20260508225206 70 48 5.0 12.0 0.00 0.00 0.00 34 1016.1
20260508225101 70 11 5.0 12.0 0.00 0.00 0.00 34 1016.1
20260508225001 71 47 5.0 12.0 0.00 0.00 0.00 34 1016.1
20260508224901 71 44 5.0 12.0 0.00 0.00 0.00 34 1016.1
20260508224801 71 67 5.0 12.0 0.00 0.00 0.00 35 1016.1
20260508224700 71 5 5.0 12.0 0.00 0.00 0.00 36 1016.0
20260508224554 71 327 5.0 12.0 0.00 0.00 0.00 36 1016.0
20260508224454 71 5 5.0 12.0 0.00 0.00 0.00 35 1016.0
20260508224355 71 348 4.0 12.0 0.00 0.00 0.00 34 1016.0
20260508224255 71 30 4.0 12.0 0.00 0.00 0.00 34 1016.0
20260508224154 71 61 4.0 12.0 0.00 0.00 0.00 34 1016.1
20260508224049 71 68 4.0 12.0 0.00 0.00 0.00 35 1016.0
20260508223949 71 73 4.0 9.0 0.00 0.00 0.00 35 1016.0
20260508223849 71 63 4.0 9.0 0.00 0.00 0.00 36 1016.1
20260508223748 70 42 4.0 9.0 0.00 0.00 0.00 35 1016.1
20260508223649 70 32 5.0 9.0 0.00 0.00 0.00 34 1016.0
20260508223546 70 121 5.0 9.0 0.00 0.00 0.00 35 1016.1
20260508223447 70 121 6.0 12.0 0.00 0.00 0.00 35 1016.1
20260508223345 70 98 6.0 12.0 0.00 0.00 0.00 35 1016.1
20260508223254 70 97 6.0 12.0 0.00 0.00 0.00 35 1016.1
20260508223142 70 84 6.0 12.0 0.00 0.00 0.00 35 1016.1
20260508223037 70 55 6.0 12.0 0.00 0.00 0.00 37 1016.1
20260508222937 70 39 6.0 12.0 0.00 0.00 0.00 36 1016.1
20260508222837 70 28 6.0 12.0 0.00 0.00 0.00 36 1016.1
20260508222747 70 28 6.0 12.0 0.00 0.00 0.00 35 1016.1
20260508222740 69 51 5.0 12.0 0.00 0.00 0.00 35 1016.1
20260508222532 69 55 5.0 12.0 0.00 0.00 0.00 37 1016.1
20260508222433 69 55 5.0 11.0 0.00 0.00 0.00 36 1016.1
20260508222334 69 61 4.0 11.0 0.00 0.00 0.00 36 1016.1
20260508222241 69 55 4.0 11.0 0.00 0.00 0.00 36 1016.1
20260508222234 69 63 4.0 9.0 0.00 0.00 0.00 36 1016.2
20260508222029 69 44 4.0 8.0 0.00 0.00 0.00 35 1016.2
20260508221929 69 39 4.0 10.0 0.00 0.00 0.00 35 1016.2
20260508221829 69 56 5.0 10.0 0.00 0.00 0.00 35 1016.2
20260508221728 69 46 5.0 10.0 0.00 0.00 0.00 36 1016.2
20260508221624 69 115 5.0 10.0 0.00 0.00 0.00 35 1016.2
20260508221521 69 75 6.0 12.0 0.00 0.00 0.00 34 1016.2
20260508221428 69 64 6.0 12.0 0.00 0.00 0.00 35 1016.2
20260508221228 69 59 6.0 12.0 0.00 0.00 0.00 35 1016.2
20260508221117 69 86 6.0 12.0 0.00 0.00 0.00 35 1016.2
20260508221014 69 84 7.0 12.0 0.00 0.00 0.00 35 1016.4
20260508220918 69 94 6.0 13.0 0.00 0.00 0.00 35 1016.2
20260508220711 70 27 6.0 13.0 0.00 0.00 0.00 35 1016.2
20260508220610 70 27 6.0 13.0 0.00 0.00 0.00 36 1016.2
20260508220504 70 32 5.0 13.0 0.00 0.00 0.00 35 1016.4
20260508220404 70 23 5.0 13.0 0.00 0.00 0.00 35 1016.2
20260508220305 70 40 5.0 13.0 0.00 0.00 0.00 35 1016.4
20260508220205 70 40 5.0 13.0 0.00 0.00 0.00 36 1016.4
20260508220105 71 82 5.0 13.0 0.00 0.00 0.00 36 1016.4
20260508215959 71 48 5.0 13.0 0.00 0.00 0.00 37 1016.4
20260508215859 70 336 5.0 9.0 0.00 0.00 0.00 37 1016.5
20260508215759 70 15 4.0 9.0 0.00 0.00 0.00 36 1016.5
20260508215658 70 47 4.0 9.0 0.00 0.00 0.00 37 1016.5
20260508215600 70 51 4.0 9.0 0.00 0.00 0.00 38 1016.4
20260508215353 70 36 4.0 10.0 0.00 0.00 0.00 38 1016.5
20260508215252 70 17 4.0 10.0 0.00 0.00 0.00 38 1016.5
20260508215153 70 305 5.0 10.0 0.00 0.00 0.00 37 1016.5
20260508215053 69 355 4.0 10.0 0.00 0.00 0.00 38 1016.5
20260508214947 69 23 4.0 10.0 0.00 0.00 0.00 38 1016.5
20260508214847 69 20 4.0 10.0 0.00 0.00 0.00 36 1016.5
20260508214746 69 84 5.0 12.0 0.00 0.00 0.00 37 1016.5
20260508214648 69 57 5.0 12.0 0.00 0.00 0.00 37 1016.5
20260508214546 69 51 6.0 12.0 0.00 0.00 0.00 36 1016.5
20260508214443 69 47 6.0 12.0 0.00 0.00 0.00 37 1016.6
20260508214341 69 49 5.0 12.0 0.00 0.00 0.00 36 1016.6
20260508214241 69 61 5.0 12.0 0.00 0.00 0.00 36 1016.6
20260508214152 69 103 5.0 12.0 0.00 0.00 0.00 35 1016.7
20260508214040 70 109 5.0 12.0 0.00 0.00 0.00 35 1016.7
20260508213935 70 80 5.0 12.0 0.00 0.00 0.00 35 1016.6
20260508213836 70 99 5.0 12.0 0.00 0.00 0.00 36 1016.7
20260508213735 70 110 4.0 11.0 0.00 0.00 0.00 35 1016.7
20260508213635 70 96 4.0 10.0 0.00 0.00 0.00 35 1016.7
20260508213534 70 104 4.0 10.0 0.00 0.00 0.00 35 1016.7
20260508213430 70 121 5.0 12.0 0.00 0.00 0.00 35 1016.7
20260508213329 70 107 5.0 12.0 0.00 0.00 0.00 37 1016.7
20260508213230 70 137 5.0 12.0 0.00 0.00 0.00 36 1016.7
20260508213128 70 136 5.0 12.0 0.00 0.00 0.00 36 1016.6
20260508213028 70 102 5.0 12.0 0.00 0.00 0.00 37 1016.7
20260508212924 70 184 5.0 12.0 0.00 0.00 0.00 35 1016.7
20260508212823 71 67 5.0 12.0 0.00 0.00 0.00 35 1016.6
20260508212729 71 49 5.0 12.0 0.00 0.00 0.00 36 1016.6
20260508212522 71 113 4.0 12.0 0.00 0.00 0.00 36 1016.7
20260508212419 71 78 3.0 10.0 0.00 0.00 0.00 36 1016.7
20260508212319 71 96 3.0 8.0 0.00 0.00 0.00 36 1016.7
20260508212217 70 122 3.0 8.0 0.00 0.00 0.00 38 1016.7
20260508212128 70 130 3.0 8.0 0.00 0.00 0.00 37 1016.8
20260508212121 70 84 3.0 11.0 0.00 0.00 0.00 37 1016.7
20260508211916 70 119 3.0 11.0 0.00 0.00 0.00 36 1016.8
20260508211820 70 119 3.0 11.0 0.00 0.00 0.00 37 1016.8
20260508211613 70 119 3.0 11.0 0.00 0.00 0.00 37 1017.0
20260508211510 70 142 3.0 11.0 0.00 0.00 0.00 37 1016.8
20260508211407 70 142 3.0 11.0 0.00 0.00 0.00 37 1016.8
20260508211304 69 144 4.0 11.0 0.00 0.00 0.00 38 1016.8
20260508211211 69 63 4.0 11.0 0.00 0.00 0.00 37 1017.0
20260508211005 69 90 3.0 10.0 0.00 0.00 0.00 39 1016.8
20260508210915 69 104 3.0 10.0 0.00 0.00 0.00 39 1017.0
20260508210611 69 60 3.0 10.0 0.00 0.00 0.00 37 1017.0
20260508210459 69 60 4.0 10.0 0.00 0.00 0.00 37 1017.0
20260508210355 69 56 4.0 10.0 0.00 0.00 0.00 38 1017.0
20260508210254 69 59 4.0 10.0 0.00 0.00 0.00 38 1017.0
20260508210155 69 9 4.0 10.0 0.00 0.00 0.00 37 1017.0
20260508210054 69 9 4.0 10.0 0.00 0.00 0.00 36 1017.1
20260508205952 69 51 4.0 10.0 0.00 0.00 0.00 38 1017.1
20260508205849 69 28 4.0 10.0 0.00 0.00 0.00 37 1017.1
20260508205747 69 40 3.0 9.0 0.00 0.00 0.00 38 1017.1
20260508205647 69 40 3.0 9.0 0.00 0.00 0.00 37 1017.1
20260508205547 69 87 3.0 9.0 0.00 0.00 0.00 39 1017.1
20260508205446 69 108 3.0 9.0 0.00 0.00 0.00 40 1017.1
20260508205341 69 86 3.0 7.0 0.00 0.00 0.00 39 1017.1
20260508205240 69 142 3.0 7.0 0.00 0.00 0.00 39 1017.1
20260508205141 69 72 3.0 7.0 0.00 0.00 0.00 37 1017.1
20260508205041 69 83 3.0 7.0 0.00 0.00 0.00 37 1017.1
20260508204948 69 47 3.0 7.0 0.00 0.00 0.00 37 1017.1
20260508204635 68 63 4.0 10.0 0.00 0.00 0.00 37 1017.1
20260508204534 68 30 5.0 11.0 0.00 0.00 0.00 38 1017.2
20260508204434 68 325 5.0 11.0 0.00 0.00 0.00 41 1017.2
20260508204328 68 43 5.0 11.0 0.00 0.00 0.00 39 1017.2
20260508204228 68 82 5.0 11.0 0.00 0.00 0.00 39 1017.2
20260508204130 68 39 6.0 11.0 0.00 0.00 0.00 40 1017.2
20260508204029 68 29 6.0 13.0 0.00 0.00 0.00 39 1017.2
20260508203928 68 20 6.0 13.0 0.00 0.00 0.00 38 1017.2
20260508203824 68 61 6.0 13.0 0.00 0.00 0.00 39 1017.3
20260508203723 68 34 5.0 13.0 0.00 0.00 0.00 38 1017.2